Observation data for Fort McKavett on 01/13/2021      Previous  Date  Next       Current Mesonet Observations  Soil Data  Daily Summary Page  Observations in Plain Language
KMC1 130600Z 19003KT M02/M02 A3028 RMK A01 T10181022  RH  097%=      5-min Rain = 0
KMC1 130601Z 20004KT M02/M02 A3028 RMK A01 T10181022  RH  097%=      5-min Rain = 0
KMC1 130602Z 19003KT M02/M02 A3028 RMK A01 T10181022  RH  097%=      5-min Rain = 0
KMC1 130603Z 20004KT M02/M02 A3028 RMK A01 T10171021  RH  097%=      5-min Rain = 0
KMC1 130604Z 20004KT M02/M02 A3028 RMK A01 T10171021  RH  097%=      5-min Rain = 0
KMC1 130605Z 21004KT M02/M02 A3028 RMK A01 T10171022  RH  097%=      5-min Rain = 0
KMC1 130606Z 21004KT M02/M02 A3028 RMK A01 T10171022  RH  096%=      5-min Rain = 0
KMC1 130607Z 21005KT M02/M02 A3028 RMK A01 T10171023  RH  096%=      5-min Rain = 0
KMC1 130608Z 22004KT M02/M03 A3028 RMK A01 T10181025  RH  096%=      5-min Rain = 0
KMC1 130609Z 22004KT M02/M03 A3028 RMK A01 T10191025  RH  095%=      5-min Rain = 0
KMC1 130610Z 21004KT M02/M03 A3028 RMK A01 T10201026  RH  095%=      5-min Rain = 0
KMC1 130611Z 21004KT M02/M03 A3028 RMK A01 T10211027  RH  095%=      5-min Rain = 0
KMC1 130612Z 21004KT M02/M03 A3028 RMK A01 T10211028  RH  095%=      5-min Rain = 0
KMC1 130613Z 21004KT M02/M03 A3028 RMK A01 T10211027  RH  096%=      5-min Rain = 0
KMC1 130614Z 21004KT M02/M03 A3028 RMK A01 T10211027  RH  096%=      5-min Rain = 0
KMC1 130615Z 21004KT M02/M03 A3028 RMK A01 T10211027  RH  096%=      5-min Rain = 0
KMC1 130616Z 21004KT M02/M03 A3028 RMK A01 T10211027  RH  096%=      5-min Rain = 0
KMC1 130617Z 21004KT M02/M03 A3028 RMK A01 T10211027  RH  096%=      5-min Rain = 0
KMC1 130618Z 21004KT M02/M03 A3028 RMK A01 T10211026  RH  097%=      5-min Rain = 0
KMC1 130619Z 21004KT M02/M03 A3028 RMK A01 T10221026  RH  097%=      5-min Rain = 0
KMC1 130620Z 21005KT M02/M03 A3028 RMK A01 T10221026  RH  097%=      5-min Rain = 0
KMC1 130621Z 21005KT M02/M03 A3028 RMK A01 T10221026  RH  097%=      5-min Rain = 0
KMC1 130622Z 21005KT M02/M03 A3028 RMK A01 T10211025  RH  097%=      5-min Rain = 0
KMC1 130623Z 21005KT M02/M02 A3028 RMK A01 T10211024  RH  097%=      5-min Rain = 0
KMC1 130624Z 21005KT M02/M02 A3028 RMK A01 T10201023  RH  098%=      5-min Rain = 0
KMC1 130625Z 21005KT M02/M02 A3028 RMK A01 T10191023  RH  098%=      5-min Rain = 0
KMC1 130626Z 21005KT M02/M02 A3028 RMK A01 T10181022  RH  098%=      5-min Rain = 0
KMC1 130627Z 21005KT M02/M02 A3028 RMK A01 T10181022  RH  098%=      5-min Rain = 0
KMC1 130628Z 21005KT M02/M02 A3028 RMK A01 T10181022  RH  097%=      5-min Rain = 0
KMC1 130629Z 20005KT M02/M02 A3028 RMK A01 T10181022  RH  097%=      5-min Rain = 0
KMC1 130630Z 20005KT M02/M02 A3028 RMK A01 T10181023  RH  097%=      5-min Rain = 0
KMC1 130631Z 20005KT M02/M02 A3028 RMK A01 T10181022  RH  097%=      5-min Rain = 0
KMC1 130632Z 20005KT M02/M02 A3028 RMK A01 T10181022  RH  097%=      5-min Rain = 0
KMC1 130633Z 20005KT M02/M02 A3028 RMK A01 T10181023  RH  096%=      5-min Rain = 0
KMC1 130634Z 20004KT M02/M02 A3028 RMK A01 T10181023  RH  096%=      5-min Rain = 0
KMC1 130635Z 20004KT M02/M02 A3028 RMK A01 T10191024  RH  096%=      5-min Rain = 0
KMC1 130636Z 20004KT M02/M03 A3028 RMK A01 T10191025  RH  096%=      5-min Rain = 0
KMC1 130637Z 21004KT M02/M03 A3028 RMK A01 T10201026  RH  096%=      5-min Rain = 0
KMC1 130638Z 21004KT M02/M03 A3028 RMK A01 T10211028  RH  095%=      5-min Rain = 0
KMC1 130639Z 21004KT M02/M03 A3028 RMK A01 T10231030  RH  095%=      5-min Rain = 0
KMC1 130640Z 21003KT M03/M03 A3028 RMK A01 T10261034  RH  094%=      5-min Rain = 0
KMC1 130641Z 21003KT M03/M04 A3028 RMK A01 T10281037  RH  094%=      5-min Rain = 0
KMC1 130642Z 22003KT M03/M04 A3028 RMK A01 T10301039  RH  093%=      5-min Rain = 0
KMC1 130643Z 21003KT M03/M04 A3028 RMK A01 T10321041  RH  094%=      5-min Rain = 0
KMC1 130644Z 21004KT M03/M04 A3028 RMK A01 T10331041  RH  094%=      5-min Rain = 0
KMC1 130645Z 21004KT M03/M04 A3028 RMK A01 T10341042  RH  094%=      5-min Rain = 0
KMC1 130646Z 21004KT M03/M04 A3028 RMK A01 T10341041  RH  095%=      5-min Rain = 0
KMC1 130647Z 21004KT M03/M04 A3028 RMK A01 T10341041  RH  096%=      5-min Rain = 0
KMC1 130648Z 20004KT M04/M04 A3028 RMK A01 T10351040  RH  096%=      5-min Rain = 0
KMC1 130649Z 21004KT M04/M04 A3028 RMK A01 T10351039  RH  097%=      5-min Rain = 0
KMC1 130650Z 21005KT M03/M04 A3027 RMK A01 T10341037  RH  097%=      5-min Rain = 0
KMC1 130651Z 21005KT M03/M04 A3027 RMK A01 T10331036  RH  098%=      5-min Rain = 0
KMC1 130652Z 21005KT M03/M04 A3027 RMK A01 T10331036  RH  098%=      5-min Rain = 0
KMC1 130653Z 21005KT M03/M04 A3027 RMK A01 T10331036  RH  098%=      5-min Rain = 0
KMC1 130654Z 21005KT M03/M04 A3027 RMK A01 T10331035  RH  098%=      5-min Rain = 0
KMC1 130655Z 21005KT M03/M04 A3027 RMK A01 T10331035  RH  098%=      5-min Rain = 0
KMC1 130656Z 22005KT M03/M03 A3027 RMK A01 T10321034  RH  099%=      5-min Rain = 0
KMC1 130657Z 22005KT M03/M03 A3027 RMK A01 T10321034  RH  099%=      5-min Rain = 0
KMC1 130658Z 22004KT M03/M03 A3027 RMK A01 T10321034  RH  099%=      5-min Rain = 0
KMC1 130659Z 22004KT M03/M03 A3027 RMK A01 T10321034  RH  098%=      5-min Rain = 0
KMC1 130700Z 22004KT M03/M04 A3027 RMK A01 T10331036  RH  098%=      5-min Rain = 0
KMC1 130701Z 22004KT M03/M04 A3027 RMK A01 T10341037  RH  098%=      5-min Rain = 0
KMC1 130702Z 22004KT M03/M04 A3027 RMK A01 T10341037  RH  098%=      5-min Rain = 0
KMC1 130703Z 22004KT M03/M04 A3027 RMK A01 T10341037  RH  098%=      5-min Rain = 0
KMC1 130704Z 22004KT M03/M04 A3027 RMK A01 T10341036  RH  099%=      5-min Rain = 0
KMC1 130705Z 21005KT M03/M04 A3027 RMK A01 T10341035  RH  099%=      5-min Rain = 0
KMC1 130706Z 21004KT M03/M04 A3027 RMK A01 T10331035  RH  099%=      5-min Rain = 0
KMC1 130707Z 21005KT M03/M03 A3027 RMK A01 T10321033  RH  099%=      5-min Rain = 0
KMC1 130708Z 21004KT M03/M03 A3027 RMK A01 T10311032  RH  100%=      5-min Rain = 0
KMC1 130709Z 21005KT M03/M03 A3026 RMK A01 T10311031  RH  100%=      5-min Rain = 0
KMC1 130710Z 21005KT M03/M03 A3026 RMK A01 T10301030  RH  100%=      5-min Rain = 0
KMC1 130711Z 21004KT M03/M03 A3026 RMK A01 T10291029  RH  100%=      5-min Rain = 0
KMC1 130712Z 21004KT M03/M03 A3026 RMK A01 T10281028  RH  100%=      5-min Rain = 0
KMC1 130713Z 21004KT M03/M03 A3026 RMK A01 T10281028  RH  100%=      5-min Rain = 0
KMC1 130714Z 21004KT M03/M03 A3026 RMK A01 T10281028  RH  100%=      5-min Rain = 0
KMC1 130715Z 21004KT M03/M03 A3026 RMK A01 T10271027  RH  100%=      5-min Rain = 0
KMC1 130716Z 21004KT M03/M03 A3026 RMK A01 T10271027  RH  100%=      5-min Rain = 0
KMC1 130717Z 21004KT M03/M03 A3026 RMK A01 T10271027  RH  100%=      5-min Rain = 0
KMC1 130718Z 22004KT M03/M03 A3026 RMK A01 T10281029  RH  100%=      5-min Rain = 0
KMC1 130719Z 21004KT M03/M03 A3026 RMK A01 T10291030  RH  099%=      5-min Rain = 0
KMC1 130720Z 22004KT M03/M03 A3026 RMK A01 T10291031  RH  099%=      5-min Rain = 0
KMC1 130721Z 22004KT M03/M03 A3026 RMK A01 T10291031  RH  099%=      5-min Rain = 0
KMC1 130722Z 21003KT M03/M03 A3026 RMK A01 T10301031  RH  099%=      5-min Rain = 0
KMC1 130723Z 21003KT M03/M03 A3026 RMK A01 T10311032  RH  099%=      5-min Rain = 0
KMC1 130724Z 21003KT M03/M03 A3026 RMK A01 T10301031  RH  099%=      5-min Rain = 0
KMC1 130725Z 21004KT M03/M03 A3026 RMK A01 T10311032  RH  099%=      5-min Rain = 0
KMC1 130726Z 21004KT M03/M03 A3026 RMK A01 T10311032  RH  099%=      5-min Rain = 0
KMC1 130727Z 20004KT M03/M03 A3025 RMK A01 T10301031  RH  099%=      5-min Rain = 0
KMC1 130728Z 20003KT M03/M03 A3025 RMK A01 T10301030  RH  100%=      5-min Rain = 0
KMC1 130729Z 20003KT M03/M03 A3025 RMK A01 T10301030  RH  100%=      5-min Rain = 0
KMC1 130730Z 21003KT M03/M03 A3025 RMK A01 T10291030  RH  100%=      5-min Rain = 0
KMC1 130731Z 21003KT M03/M03 A3025 RMK A01 T10291029  RH  100%=      5-min Rain = 0
KMC1 130732Z 21002KT M03/M03 A3025 RMK A01 T10291029  RH  100%=      5-min Rain = 0
KMC1 130733Z 22002KT M03/M03 A3025 RMK A01 T10291029  RH  100%=      5-min Rain = 0
KMC1 130734Z 23002KT M03/M03 A3025 RMK A01 T10291029  RH  100%=      5-min Rain = 0
KMC1 130735Z 23002KT M03/M03 A3025 RMK A01 T10291030  RH  100%=      5-min Rain = 0
KMC1 130736Z 23002KT M03/M03 A3025 RMK A01 T10291030  RH  100%=      5-min Rain = 0
KMC1 130737Z 22002KT M03/M03 A3025 RMK A01 T10291030  RH  100%=      5-min Rain = 0
KMC1 130738Z 23002KT M03/M03 A3025 RMK A01 T10301030  RH  100%=      5-min Rain = 0
KMC1 130739Z 25002KT M03/M03 A3025 RMK A01 T10291030  RH  100%=      5-min Rain = 0
KMC1 130740Z 24002KT M03/M03 A3025 RMK A01 T10301030  RH  100%=      5-min Rain = 0
KMC1 130741Z 24002KT M03/M03 A3025 RMK A01 T10301030  RH  100%=      5-min Rain = 0
KMC1 130742Z 23002KT M03/M03 A3025 RMK A01 T10301031  RH  100%=      5-min Rain = 0
KMC1 130743Z 23002KT M03/M03 A3025 RMK A01 T10301031  RH  100%=      5-min Rain = 0
KMC1 130744Z 23002KT M03/M03 A3025 RMK A01 T10301030  RH  100%=      5-min Rain = 0
KMC1 130745Z 22002KT M03/M03 A3025 RMK A01 T10301031  RH  100%=      5-min Rain = 0
KMC1 130746Z 22002KT M03/M03 A3025 RMK A01 T10301030  RH  100%=      5-min Rain = 0
KMC1 130747Z 22002KT M03/M03 A3025 RMK A01 T10301030  RH  100%=      5-min Rain = 0
KMC1 130748Z 22003KT M03/M03 A3025 RMK A01 T10301030  RH  100%=      5-min Rain = 0
KMC1 130749Z 23003KT M03/M03 A3025 RMK A01 T10301030  RH  100%=      5-min Rain = 0
KMC1 130750Z 23004KT M03/M03 A3026 RMK A01 T10301030  RH  100%=      5-min Rain = 0
KMC1 130751Z 23004KT M03/M03 A3026 RMK A01 T10311032  RH  099%=      5-min Rain = 0
KMC1 130752Z 23004KT M03/M03 A3026 RMK A01 T10321034  RH  099%=      5-min Rain = 0
KMC1 130753Z 23004KT M03/M04 A3026 RMK A01 T10331035  RH  099%=      5-min Rain = 0
KMC1 130754Z 23004KT M03/M04 A3026 RMK A01 T10341036  RH  099%=      5-min Rain = 0
KMC1 130755Z 23004KT M03/M04 A3026 RMK A01 T10341036  RH  099%=      5-min Rain = 0
KMC1 130756Z 23004KT M03/M04 A3026 RMK A01 T10341035  RH  099%=      5-min Rain = 0
KMC1 130757Z 23004KT M03/M03 A3026 RMK A01 T10331034  RH  100%=      5-min Rain = 0
KMC1 130758Z 23004KT M03/M03 A3026 RMK A01 T10331033  RH  100%=      5-min Rain = 0
KMC1 130759Z 23004KT M03/M03 A3026 RMK A01 T10331034  RH  100%=      5-min Rain = 0
KMC1 130800Z 23004KT M03/M03 A3026 RMK A01 T10341034  RH  100%=      5-min Rain = 0
KMC1 130801Z 23004KT M03/M03 A3026 RMK A01 T10331034  RH  100%=      5-min Rain = 0
KMC1 130802Z 23004KT M03/M04 A3026 RMK A01 T10341035  RH  100%=      5-min Rain = 0
KMC1 130803Z 22004KT M03/M04 A3026 RMK A01 T10341035  RH  100%=      5-min Rain = 0
KMC1 130804Z 22005KT M03/M04 A3026 RMK A01 T10341035  RH  100%=      5-min Rain = 0
KMC1 130805Z 22005KT M03/M03 A3026 RMK A01 T10341034  RH  100%=      5-min Rain = 0
KMC1 130806Z 22005KT M03/M03 A3026 RMK A01 T10331034  RH  100%=      5-min Rain = 0
KMC1 130807Z 22005KT M03/M03 A3026 RMK A01 T10331033  RH  100%=      5-min Rain = 0
KMC1 130808Z 21005KT M03/M03 A3026 RMK A01 T10321032  RH  100%=      5-min Rain = 0
KMC1 130809Z 21005KT M03/M03 A3026 RMK A01 T10301030  RH  100%=      5-min Rain = 0
KMC1 130810Z 21004KT M03/M03 A3026 RMK A01 T10291029  RH  100%=      5-min Rain = 0
KMC1 130811Z 21004KT M03/M03 A3026 RMK A01 T10281028  RH  100%=      5-min Rain = 0
KMC1 130812Z 21004KT M03/M03 A3026 RMK A01 T10271027  RH  100%=      5-min Rain = 0
KMC1 130813Z 21005KT M03/M03 A3026 RMK A01 T10261026  RH  100%=      5-min Rain = 0
KMC1 130814Z 21005KT M03/M03 A3026 RMK A01 T10261027  RH  100%=      5-min Rain = 0
KMC1 130815Z 21006KT M03/M03 A3026 RMK A01 T10261026  RH  100%=      5-min Rain = 0
KMC1 130816Z 21005KT M03/M03 A3026 RMK A01 T10251026  RH  100%=      5-min Rain = 0
KMC1 130817Z 20006KT M03/M03 A3026 RMK A01 T10251026  RH  100%=      5-min Rain = 0
KMC1 130818Z 20005KT M03/M03 A3026 RMK A01 T10251025  RH  100%=      5-min Rain = 0
KMC1 130819Z 20005KT M02/M02 A3026 RMK A01 T10241024  RH  100%=      5-min Rain = 0
KMC1 130820Z 20005KT M02/M02 A3026 RMK A01 T10231023  RH  100%=      5-min Rain = 0
KMC1 130821Z 21005KT M02/M02 A3026 RMK A01 T10231023  RH  100%=      5-min Rain = 0
KMC1 130822Z 20004KT M02/M02 A3026 RMK A01 T10231023  RH  100%=      5-min Rain = 0
KMC1 130823Z 21004KT M02/M02 A3026 RMK A01 T10221023  RH  100%=      5-min Rain = 0
KMC1 130824Z 21004KT M02/M02 A3026 RMK A01 T10221023  RH  100%=      5-min Rain = 0
KMC1 130825Z 22003KT M02/M02 A3026 RMK A01 T10231024  RH  099%=      5-min Rain = 0
KMC1 130826Z 22003KT M02/M03 A3026 RMK A01 T10241027  RH  098%=      5-min Rain = 0
KMC1 130827Z 22003KT M03/M03 A3026 RMK A01 T10271031  RH  097%=      5-min Rain = 0
KMC1 130828Z 22003KT M03/M04 A3026 RMK A01 T10301036  RH  096%=      5-min Rain = 0
KMC1 130829Z 22003KT M03/M04 A3026 RMK A01 T10321039  RH  095%=      5-min Rain = 0
KMC1 130830Z 22003KT M04/M04 A3026 RMK A01 T10351041  RH  095%=      5-min Rain = 0
KMC1 130831Z 22003KT M04/M04 A3026 RMK A01 T10361043  RH  095%=      5-min Rain = 0
KMC1 130832Z 22003KT M04/M05 A3026 RMK A01 T10381045  RH  095%=      5-min Rain = 0
KMC1 130833Z 22003KT M04/M05 A3026 RMK A01 T10381045  RH  095%=      5-min Rain = 0
KMC1 130834Z 22003KT M04/M05 A3026 RMK A01 T10391045  RH  096%=      5-min Rain = 0
KMC1 130835Z 22003KT M04/M05 A3026 RMK A01 T10401045  RH  096%=      5-min Rain = 0
KMC1 130836Z 22003KT M04/M05 A3026 RMK A01 T10401045  RH  096%=      5-min Rain = 0
KMC1 130837Z 22003KT M04/M05 A3026 RMK A01 T10411046  RH  097%=      5-min Rain = 0
KMC1 130838Z 22003KT M04/M05 A3026 RMK A01 T10411046  RH  097%=      5-min Rain = 0
KMC1 130839Z 21003KT M04/M05 A3026 RMK A01 T10421046  RH  097%=      5-min Rain = 0
KMC1 130840Z 21003KT M04/M05 A3026 RMK A01 T10421046  RH  097%=      5-min Rain = 0
KMC1 130841Z 21003KT M04/M05 A3026 RMK A01 T10421046  RH  097%=      5-min Rain = 0
KMC1 130842Z 21003KT M04/M05 A3026 RMK A01 T10421046  RH  098%=      5-min Rain = 0
KMC1 130843Z 20004KT M04/M05 A3026 RMK A01 T10431046  RH  098%=      5-min Rain = 0
KMC1 130844Z 21004KT M04/M05 A3026 RMK A01 T10421045  RH  098%=      5-min Rain = 0
KMC1 130845Z 20004KT M04/M05 A3026 RMK A01 T10421045  RH  098%=      5-min Rain = 0
KMC1 130846Z 21004KT M04/M05 A3026 RMK A01 T10421045  RH  098%=      5-min Rain = 0
KMC1 130847Z 21004KT M04/M05 A3026 RMK A01 T10421045  RH  098%=      5-min Rain = 0
KMC1 130848Z 21004KT M04/M05 A3026 RMK A01 T10431045  RH  099%=      5-min Rain = 0
KMC1 130849Z 21004KT M04/M04 A3026 RMK A01 T10431044  RH  099%=      5-min Rain = 0
KMC1 130850Z 21004KT M04/M04 A3026 RMK A01 T10421044  RH  099%=      5-min Rain = 0
KMC1 130851Z 22004KT M04/M04 A3026 RMK A01 T10421043  RH  099%=      5-min Rain = 0
KMC1 130852Z 22004KT M04/M04 A3026 RMK A01 T10411043  RH  099%=      5-min Rain = 0
KMC1 130853Z 23004KT M04/M04 A3026 RMK A01 T10411042  RH  099%=      5-min Rain = 0
KMC1 130854Z 23004KT M04/M04 A3026 RMK A01 T10411042  RH  100%=      5-min Rain = 0
KMC1 130855Z 24004KT M04/M04 A3026 RMK A01 T10401040  RH  100%=      5-min Rain = 0
KMC1 130856Z 24004KT M04/M04 A3026 RMK A01 T10391040  RH  100%=      5-min Rain = 0
KMC1 130857Z 25004KT M04/M04 A3026 RMK A01 T10391040  RH  100%=      5-min Rain = 0
KMC1 130858Z 25003KT M04/M04 A3026 RMK A01 T10391040  RH  100%=      5-min Rain = 0
KMC1 130859Z 25003KT M04/M04 A3026 RMK A01 T10391040  RH  100%=      5-min Rain = 0
KMC1 130900Z 25003KT M04/M04 A3026 RMK A01 T10391040  RH  100%=      5-min Rain = 0
KMC1 130901Z 25003KT M04/M04 A3026 RMK A01 T10401040  RH  100%=      5-min Rain = 0
KMC1 130902Z 26003KT M04/M04 A3026 RMK A01 T10401041  RH  100%=      5-min Rain = 0
KMC1 130903Z 26004KT M04/M04 A3026 RMK A01 T10401041  RH  100%=      5-min Rain = 0
KMC1 130904Z 26004KT M04/M04 A3026 RMK A01 T10411041  RH  100%=      5-min Rain = 0
KMC1 130905Z 26004KT M04/M04 A3026 RMK A01 T10411042  RH  100%=      5-min Rain = 0
KMC1 130906Z 26004KT M04/M04 A3026 RMK A01 T10411041  RH  100%=      5-min Rain = 0
KMC1 130907Z 26004KT M04/M04 A3026 RMK A01 T10411041  RH  100%=      5-min Rain = 0
KMC1 130908Z 25003KT M04/M04 A3026 RMK A01 T10411041  RH  100%=      5-min Rain = 0
KMC1 130909Z 25003KT M04/M04 A3026 RMK A01 T10401040  RH  100%=      5-min Rain = 0
KMC1 130910Z 25003KT M04/M04 A3026 RMK A01 T10391040  RH  100%=      5-min Rain = 0
KMC1 130911Z 25003KT M04/M04 A3026 RMK A01 T10391039  RH  100%=      5-min Rain = 0
KMC1 130912Z 25002KT M04/M04 A3026 RMK A01 T10391039  RH  100%=      5-min Rain = 0
KMC1 130913Z 25002KT M04/M04 A3026 RMK A01 T10391039  RH  100%=      5-min Rain = 0
KMC1 130914Z 25002KT M04/M04 A3026 RMK A01 T10391039  RH  100%=      5-min Rain = 0
KMC1 130915Z 25002KT M04/M04 A3026 RMK A01 T10391039  RH  100%=      5-min Rain = 0
KMC1 130916Z 24002KT M04/M04 A3026 RMK A01 T10391039  RH  100%=      5-min Rain = 0
KMC1 130917Z 23002KT M04/M04 A3026 RMK A01 T10381038  RH  100%=      5-min Rain = 0
KMC1 130918Z 23002KT M04/M04 A3026 RMK A01 T10381038  RH  100%=      5-min Rain = 0
KMC1 130919Z 21002KT M04/M04 A3026 RMK A01 T10371037  RH  100%=      5-min Rain = 0
KMC1 130920Z 21002KT M04/M04 A3026 RMK A01 T10371037  RH  100%=      5-min Rain = 0
KMC1 130921Z 21002KT M04/M04 A3026 RMK A01 T10361036  RH  100%=      5-min Rain = 0
KMC1 130922Z 21003KT M04/M04 A3025 RMK A01 T10351036  RH  100%=      5-min Rain = 0
KMC1 130923Z 21003KT M04/M04 A3025 RMK A01 T10351035  RH  100%=      5-min Rain = 0
KMC1 130924Z 21003KT M04/M04 A3025 RMK A01 T10351035  RH  100%=      5-min Rain = 0
KMC1 130925Z 21003KT M04/M04 A3025 RMK A01 T10351035  RH  100%=      5-min Rain = 0
KMC1 130926Z 21003KT M04/M04 A3025 RMK A01 T10351035  RH  100%=      5-min Rain = 0
KMC1 130927Z 21003KT M04/M04 A3025 RMK A01 T10351035  RH  100%=      5-min Rain = 0
KMC1 130928Z 21003KT M04/M04 A3025 RMK A01 T10361036  RH  100%=      5-min Rain = 0
KMC1 130929Z 21003KT M04/M04 A3025 RMK A01 T10361036  RH  100%=      5-min Rain = 0
KMC1 130930Z 21003KT M04/M04 A3025 RMK A01 T10351035  RH  100%=      5-min Rain = 0
KMC1 130931Z 22003KT M03/M03 A3025 RMK A01 T10341034  RH  100%=      5-min Rain = 0
KMC1 130932Z 22003KT M03/M03 A3025 RMK A01 T10341034  RH  100%=      5-min Rain = 0
KMC1 130933Z 22003KT M03/M03 A3025 RMK A01 T10341034  RH  100%=      5-min Rain = 0
KMC1 130934Z 21003KT M03/M03 A3025 RMK A01 T10341034  RH  100%=      5-min Rain = 0
KMC1 130935Z 21003KT M03/M03 A3025 RMK A01 T10341034  RH  100%=      5-min Rain = 0
KMC1 130936Z 21004KT M03/M03 A3025 RMK A01 T10341034  RH  100%=      5-min Rain = 0
KMC1 130937Z 21004KT M03/M03 A3025 RMK A01 T10341034  RH  100%=      5-min Rain = 0
KMC1 130938Z 20004KT M03/M04 A3025 RMK A01 T10341035  RH  100%=      5-min Rain = 0
KMC1 130939Z 20004KT M04/M04 A3025 RMK A01 T10351035  RH  100%=      5-min Rain = 0
KMC1 130940Z 20004KT M04/M04 A3025 RMK A01 T10351035  RH  100%=      5-min Rain = 0
KMC1 130941Z 20004KT M04/M04 A3025 RMK A01 T10351035  RH  100%=      5-min Rain = 0
KMC1 130942Z 20004KT M04/M04 A3025 RMK A01 T10351035  RH  100%=      5-min Rain = 0
KMC1 130943Z 20005KT M04/M04 A3025 RMK A01 T10351035  RH  100%=      5-min Rain = 0
KMC1 130944Z 20005KT M03/M03 A3025 RMK A01 T10341034  RH  100%=      5-min Rain = 0
KMC1 130945Z 21005KT M03/M03 A3025 RMK A01 T10341034  RH  100%=      5-min Rain = 0
KMC1 130946Z 21005KT M03/M03 A3025 RMK A01 T10331033  RH  100%=      5-min Rain = 0
KMC1 130947Z 22004KT M03/M03 A3025 RMK A01 T10321033  RH  100%=      5-min Rain = 0
KMC1 130948Z 22004KT M03/M03 A3025 RMK A01 T10321033  RH  100%=      5-min Rain = 0
KMC1 130949Z 22004KT M03/M04 A3025 RMK A01 T10341035  RH  100%=      5-min Rain = 0
KMC1 130950Z 21004KT M04/M04 A3025 RMK A01 T10371037  RH  100%=      5-min Rain = 0
KMC1 130951Z 21004KT M04/M04 A3025 RMK A01 T10371038  RH  100%=      5-min Rain = 0
KMC1 130952Z 21004KT M04/M04 A3025 RMK A01 T10371037  RH  100%=      5-min Rain = 0
KMC1 130953Z 21004KT M04/M04 A3025 RMK A01 T10361036  RH  100%=      5-min Rain = 0
KMC1 130954Z 21004KT M04/M04 A3025 RMK A01 T10361036  RH  100%=      5-min Rain = 0
KMC1 130955Z 21004KT M04/M04 A3025 RMK A01 T10351035  RH  100%=      5-min Rain = 0
KMC1 130956Z 21004KT M04/M04 A3025 RMK A01 T10351035  RH  100%=      5-min Rain = 0
KMC1 130957Z 22004KT M04/M04 A3025 RMK A01 T10351035  RH  100%=      5-min Rain = 0
KMC1 130958Z 22004KT M04/M04 A3025 RMK A01 T10361036  RH  100%=      5-min Rain = 0
KMC1 130959Z 23004KT M04/M04 A3025 RMK A01 T10381039  RH  099%=      5-min Rain = 0
KMC1 131000Z 23004KT M04/M04 A3025 RMK A01 T10391041  RH  099%=      5-min Rain = 0
KMC1 131001Z 23004KT M04/M04 A3025 RMK A01 T10411043  RH  098%=      5-min Rain = 0
KMC1 131002Z 23004KT M04/M04 A3025 RMK A01 T10421044  RH  098%=      5-min Rain = 0
KMC1 131003Z 23004KT M04/M04 A3025 RMK A01 T10421044  RH  099%=      5-min Rain = 0
KMC1 131004Z 23004KT M04/M04 A3025 RMK A01 T10421044  RH  099%=      5-min Rain = 0
KMC1 131005Z 23004KT M04/M04 A3025 RMK A01 T10421044  RH  099%=      5-min Rain = 0
KMC1 131006Z 23004KT M04/M04 A3025 RMK A01 T10421044  RH  099%=      5-min Rain = 0
KMC1 131007Z 22004KT M04/M04 A3025 RMK A01 T10431044  RH  099%=      5-min Rain = 0
KMC1 131008Z 22004KT M04/M04 A3025 RMK A01 T10431044  RH  099%=      5-min Rain = 0
KMC1 131009Z 23004KT M04/M05 A3025 RMK A01 T10431045  RH  099%=      5-min Rain = 0
KMC1 131010Z 22004KT M04/M05 A3025 RMK A01 T10441045  RH  099%=      5-min Rain = 0
KMC1 131011Z 23004KT M04/M05 A3025 RMK A01 T10441045  RH  099%=      5-min Rain = 0
KMC1 131012Z 23004KT M04/M05 A3025 RMK A01 T10441046  RH  099%=      5-min Rain = 0
KMC1 131013Z 23004KT M05/M05 A3025 RMK A01 T10451046  RH  099%=      5-min Rain = 0
KMC1 131014Z 23004KT M05/M05 A3025 RMK A01 T10451046  RH  099%=      5-min Rain = 0
KMC1 131015Z 23003KT M05/M05 A3025 RMK A01 T10451045  RH  100%=      5-min Rain = 0
KMC1 131016Z 24004KT M04/M04 A3025 RMK A01 T10441044  RH  100%=      5-min Rain = 0
KMC1 131017Z 24003KT M04/M04 A3025 RMK A01 T10431043  RH  100%=      5-min Rain = 0
KMC1 131018Z 24004KT M04/M04 A3025 RMK A01 T10431043  RH  100%=      5-min Rain = 0
KMC1 131019Z 24004KT M04/M04 A3025 RMK A01 T10421043  RH  100%=      5-min Rain = 0
KMC1 131020Z 25004KT M04/M04 A3025 RMK A01 T10421042  RH  100%=      5-min Rain = 0
KMC1 131021Z 25003KT M04/M04 A3025 RMK A01 T10421042  RH  100%=      5-min Rain = 0
KMC1 131022Z 26003KT M04/M04 A3025 RMK A01 T10421042  RH  100%=      5-min Rain = 0
KMC1 131023Z 27003KT M04/M04 A3025 RMK A01 T10421042  RH  100%=      5-min Rain = 0
KMC1 131024Z 27003KT M04/M04 A3025 RMK A01 T10421042  RH  100%=      5-min Rain = 0
KMC1 131025Z 27004KT M04/M04 A3025 RMK A01 T10421042  RH  100%=      5-min Rain = 0
KMC1 131026Z 27004KT M04/M04 A3025 RMK A01 T10421042  RH  100%=      5-min Rain = 0
KMC1 131027Z 26004KT M04/M04 A3025 RMK A01 T10421042  RH  100%=      5-min Rain = 0
KMC1 131028Z 26004KT M04/M04 A3025 RMK A01 T10421042  RH  100%=      5-min Rain = 0
KMC1 131029Z 27004KT M04/M04 A3025 RMK A01 T10421043  RH  100%=      5-min Rain = 0
KMC1 131030Z 26004KT M04/M04 A3025 RMK A01 T10421042  RH  100%=      5-min Rain = 0
KMC1 131031Z 26004KT M04/M04 A3025 RMK A01 T10421042  RH  100%=      5-min Rain = 0
KMC1 131032Z 26004KT M04/M04 A3025 RMK A01 T10421042  RH  100%=      5-min Rain = 0
KMC1 131033Z 26004KT M04/M04 A3025 RMK A01 T10421042  RH  100%=      5-min Rain = 0
KMC1 131034Z 25004KT M04/M04 A3025 RMK A01 T10431043  RH  100%=      5-min Rain = 0
KMC1 131035Z 25004KT M04/M04 A3025 RMK A01 T10421043  RH  100%=      5-min Rain = 0
KMC1 131036Z 25004KT M04/M04 A3025 RMK A01 T10421042  RH  100%=      5-min Rain = 0
KMC1 131037Z 25004KT M04/M04 A3025 RMK A01 T10421042  RH  100%=      5-min Rain = 0
KMC1 131038Z 26004KT M04/M04 A3025 RMK A01 T10411042  RH  100%=      5-min Rain = 0
KMC1 131039Z 26004KT M04/M04 A3025 RMK A01 T10421042  RH  100%=      5-min Rain = 0
KMC1 131040Z 26004KT M04/M04 A3025 RMK A01 T10411042  RH  100%=      5-min Rain = 0
KMC1 131041Z 26004KT M04/M04 A3025 RMK A01 T10411042  RH  100%=      5-min Rain = 0
KMC1 131042Z 26004KT M04/M04 A3025 RMK A01 T10411042  RH  100%=      5-min Rain = 0
KMC1 131043Z 26004KT M04/M04 A3025 RMK A01 T10411041  RH  100%=      5-min Rain = 0
KMC1 131044Z 26004KT M04/M04 A3025 RMK A01 T10411041  RH  100%=      5-min Rain = 0
KMC1 131045Z 26004KT M04/M04 A3025 RMK A01 T10401041  RH  100%=      5-min Rain = 0
KMC1 131046Z 26004KT M04/M04 A3025 RMK A01 T10401040  RH  100%=      5-min Rain = 0
KMC1 131047Z 26004KT M04/M04 A3025 RMK A01 T10401040  RH  100%=      5-min Rain = 0
KMC1 131048Z 26004KT M04/M04 A3025 RMK A01 T10391040  RH  100%=      5-min Rain = 0
KMC1 131049Z 26004KT M04/M04 A3025 RMK A01 T10391039  RH  100%=      5-min Rain = 0
KMC1 131050Z 26004KT M04/M04 A3025 RMK A01 T10381038  RH  100%=      5-min Rain = 0
KMC1 131051Z 26005KT M04/M04 A3025 RMK A01 T10371037  RH  100%=      5-min Rain = 0
KMC1 131052Z 26005KT M04/M04 A3025 RMK A01 T10361036  RH  100%=      5-min Rain = 0
KMC1 131053Z 26004KT M04/M04 A3025 RMK A01 T10361036  RH  100%=      5-min Rain = 0
KMC1 131054Z 26004KT M04/M04 A3025 RMK A01 T10351036  RH  100%=      5-min Rain = 0
KMC1 131055Z 26004KT M04/M04 A3025 RMK A01 T10351035  RH  100%=      5-min Rain = 0
KMC1 131056Z 26004KT M04/M04 A3025 RMK A01 T10351035  RH  100%=      5-min Rain = 0
KMC1 131057Z 26004KT M04/M04 A3025 RMK A01 T10351035  RH  100%=      5-min Rain = 0
KMC1 131058Z 26004KT M04/M04 A3025 RMK A01 T10351035  RH  100%=      5-min Rain = 0
KMC1 131059Z 26004KT M04/M04 A3025 RMK A01 T10351035  RH  100%=      5-min Rain = 0
KMC1 131100Z 26004KT M04/M04 A3024 RMK A01 T10351035  RH  100%=      5-min Rain = 0
KMC1 131101Z 25004KT M04/M04 A3024 RMK A01 T10351035  RH  100%=      5-min Rain = 0
KMC1 131102Z 26004KT M04/M04 A3024 RMK A01 T10351035  RH  100%=      5-min Rain = 0
KMC1 131103Z 26005KT M04/M04 A3024 RMK A01 T10351035  RH  100%=      5-min Rain = 0
KMC1 131104Z 25004KT M04/M04 A3024 RMK A01 T10351035  RH  100%=      5-min Rain = 0
KMC1 131105Z 25005KT M04/M04 A3024 RMK A01 T10351035  RH  100%=      5-min Rain = 0
KMC1 131106Z 25004KT M04/M04 A3024 RMK A01 T10351035  RH  100%=      5-min Rain = 0
KMC1 131107Z 25004KT M03/M04 A3024 RMK A01 T10341035  RH  100%=      5-min Rain = 0
KMC1 131108Z 25004KT M03/M03 A3024 RMK A01 T10341034  RH  100%=      5-min Rain = 0
KMC1 131109Z 25005KT M03/M03 A3024 RMK A01 T10341034  RH  100%=      5-min Rain = 0
KMC1 131110Z 25005KT M03/M04 A3024 RMK A01 T10341035  RH  100%=      5-min Rain = 0
KMC1 131111Z 25005KT M03/M03 A3024 RMK A01 T10341034  RH  100%=      5-min Rain = 0
KMC1 131112Z 25004KT M03/M03 A3024 RMK A01 T10341034  RH  100%=      5-min Rain = 0
KMC1 131113Z 25005KT M03/M03 A3024 RMK A01 T10331033  RH  100%=      5-min Rain = 0
KMC1 131114Z 25005KT M03/M03 A3024 RMK A01 T10331033  RH  100%=      5-min Rain = 0
KMC1 131115Z 25005KT M03/M03 A3024 RMK A01 T10321032  RH  100%=      5-min Rain = 0
KMC1 131116Z 25005KT M03/M03 A3024 RMK A01 T10321032  RH  100%=      5-min Rain = 0
KMC1 131117Z 25004KT M03/M03 A3024 RMK A01 T10321032  RH  100%=      5-min Rain = 0
KMC1 131118Z 25005KT M03/M03 A3024 RMK A01 T10321032  RH  100%=      5-min Rain = 0
KMC1 131119Z 24004KT M03/M03 A3024 RMK A01 T10321032  RH  100%=      5-min Rain = 0
KMC1 131120Z 24004KT M03/M03 A3024 RMK A01 T10321033  RH  100%=      5-min Rain = 0
KMC1 131121Z 25005KT M03/M03 A3024 RMK A01 T10321032  RH  100%=      5-min Rain = 0
KMC1 131122Z 25005KT M03/M03 A3024 RMK A01 T10311032  RH  100%=      5-min Rain = 0
KMC1 131123Z 25005KT M03/M03 A3024 RMK A01 T10311032  RH  100%=      5-min Rain = 0
KMC1 131124Z 24005KT M03/M03 A3024 RMK A01 T10311032  RH  100%=      5-min Rain = 0
KMC1 131125Z 25005KT M03/M03 A3024 RMK A01 T10311031  RH  100%=      5-min Rain = 0
KMC1 131126Z 24005KT M03/M03 A3024 RMK A01 T10311031  RH  100%=      5-min Rain = 0
KMC1 131127Z 24005KT M03/M03 A3024 RMK A01 T10311031  RH  100%=      5-min Rain = 0
KMC1 131128Z 24005KT M03/M03 A3024 RMK A01 T10301031  RH  100%=      5-min Rain = 0
KMC1 131129Z 24005KT M03/M03 A3024 RMK A01 T10301031  RH  100%=      5-min Rain = 0
KMC1 131130Z 24004KT M03/M03 A3024 RMK A01 T10301031  RH  100%=      5-min Rain = 0
KMC1 131131Z 24004KT M03/M03 A3024 RMK A01 T10301030  RH  100%=      5-min Rain = 0
KMC1 131132Z 24005KT M03/M03 A3024 RMK A01 T10301030  RH  100%=      5-min Rain = 0
KMC1 131133Z 24005KT M03/M03 A3024 RMK A01 T10311031  RH  100%=      5-min Rain = 0
KMC1 131134Z 23005KT M03/M03 A3024 RMK A01 T10311032  RH  100%=      5-min Rain = 0
KMC1 131135Z 23005KT M03/M03 A3024 RMK A01 T10311032  RH  100%=      5-min Rain = 0
KMC1 131136Z 23005KT M03/M03 A3024 RMK A01 T10321032  RH  099%=      5-min Rain = 0
KMC1 131137Z 23005KT M03/M03 A3024 RMK A01 T10311032  RH  100%=      5-min Rain = 0
KMC1 131138Z 23005KT M03/M03 A3024 RMK A01 T10321032  RH  100%=      5-min Rain = 0
KMC1 131139Z 23005KT M03/M03 A3024 RMK A01 T10311032  RH  100%=      5-min Rain = 0
KMC1 131140Z 24004KT M03/M03 A3024 RMK A01 T10311032  RH  100%=      5-min Rain = 0
KMC1 131141Z 24004KT M03/M03 A3024 RMK A01 T10321032  RH  100%=      5-min Rain = 0
KMC1 131142Z 24004KT M03/M03 A3024 RMK A01 T10311032  RH  100%=      5-min Rain = 0
KMC1 131143Z 24004KT M03/M03 A3024 RMK A01 T10311032  RH  100%=      5-min Rain = 0
KMC1 131144Z 24004KT M03/M03 A3024 RMK A01 T10311032  RH  100%=      5-min Rain = 0
KMC1 131145Z 24004KT M03/M03 A3024 RMK A01 T10321033  RH  100%=      5-min Rain = 0
KMC1 131146Z 24003KT M03/M03 A3024 RMK A01 T10331034  RH  099%=      5-min Rain = 0
KMC1 131147Z 25003KT M03/M04 A3024 RMK A01 T10341035  RH  099%=      5-min Rain = 0
KMC1 131148Z 24004KT M04/M04 A3024 RMK A01 T10351037  RH  099%=      5-min Rain = 0
KMC1 131149Z 24004KT M04/M04 A3024 RMK A01 T10351037  RH  099%=      5-min Rain = 0
KMC1 131150Z 24004KT M04/M04 A3024 RMK A01 T10361037  RH  099%=      5-min Rain = 0
KMC1 131151Z 24004KT M04/M04 A3024 RMK A01 T10361037  RH  099%=      5-min Rain = 0
KMC1 131152Z 24004KT M04/M04 A3024 RMK A01 T10361037  RH  099%=      5-min Rain = 0
KMC1 131153Z 24004KT M04/M04 A3024 RMK A01 T10361038  RH  099%=      5-min Rain = 0
KMC1 131154Z 24004KT M04/M04 A3024 RMK A01 T10361038  RH  099%=      5-min Rain = 0
KMC1 131155Z 24004KT M04/M04 A3024 RMK A01 T10361037  RH  099%=      5-min Rain = 0
KMC1 131156Z 24004KT M04/M04 A3024 RMK A01 T10361037  RH  099%=      5-min Rain = 0
KMC1 131157Z 24004KT M04/M04 A3024 RMK A01 T10361037  RH  100%=      5-min Rain = 0
KMC1 131158Z 25004KT M04/M04 A3024 RMK A01 T10361037  RH  100%=      5-min Rain = 0
KMC1 131159Z 25004KT M04/M04 A3024 RMK A01 T10361037  RH  100%=      5-min Rain = 0
KMC1 131200Z 25004KT M04/M04 A3024 RMK A01 T10361037  RH  100%=      5-min Rain = 0
KMC1 131201Z 25004KT M04/M04 A3024 RMK A01 T10361037  RH  100%=      5-min Rain = 0
KMC1 131202Z 25004KT M04/M04 A3024 RMK A01 T10361036  RH  100%=      5-min Rain = 0
KMC1 131203Z 25004KT M04/M04 A3024 RMK A01 T10361036  RH  100%=      5-min Rain = 0
KMC1 131204Z 26004KT M04/M04 A3024 RMK A01 T10361036  RH  100%=      5-min Rain = 0
KMC1 131205Z 25004KT M04/M04 A3024 RMK A01 T10351035  RH  100%=      5-min Rain = 0
KMC1 131206Z 26004KT M04/M04 A3024 RMK A01 T10351035  RH  100%=      5-min Rain = 0
KMC1 131207Z 26004KT M04/M04 A3024 RMK A01 T10351036  RH  100%=      5-min Rain = 0
KMC1 131208Z 26004KT M04/M04 A3024 RMK A01 T10361036  RH  100%=      5-min Rain = 0
KMC1 131209Z 26004KT M04/M04 A3024 RMK A01 T10361036  RH  100%=      5-min Rain = 0
KMC1 131210Z 26004KT M04/M04 A3024 RMK A01 T10361036  RH  100%=      5-min Rain = 0
KMC1 131211Z 26004KT M04/M04 A3024 RMK A01 T10361037  RH  100%=      5-min Rain = 0
KMC1 131212Z 26004KT M04/M04 A3024 RMK A01 T10361036  RH  100%=      5-min Rain = 0
KMC1 131213Z 26004KT M04/M04 A3024 RMK A01 T10371037  RH  100%=      5-min Rain = 0
KMC1 131214Z 26005KT M04/M04 A3024 RMK A01 T10361037  RH  100%=      5-min Rain = 0
KMC1 131215Z 26005KT M04/M04 A3024 RMK A01 T10361037  RH  100%=      5-min Rain = 0
KMC1 131216Z 26005KT M04/M04 A3024 RMK A01 T10361036  RH  100%=      5-min Rain = 0
KMC1 131217Z 25005KT M04/M04 A3024 RMK A01 T10361037  RH  100%=      5-min Rain = 0
KMC1 131218Z 26004KT M04/M04 A3024 RMK A01 T10361036  RH  100%=      5-min Rain = 0
KMC1 131219Z 26004KT M04/M04 A3024 RMK A01 T10351035  RH  100%=      5-min Rain = 0
KMC1 131220Z 26005KT M04/M04 A3024 RMK A01 T10351035  RH  100%=      5-min Rain = 0
KMC1 131221Z 26005KT M04/M04 A3024 RMK A01 T10351035  RH  100%=      5-min Rain = 0
KMC1 131222Z 27004KT M04/M04 A3024 RMK A01 T10351035  RH  100%=      5-min Rain = 0
KMC1 131223Z 26004KT M04/M04 A3024 RMK A01 T10351035  RH  100%=      5-min Rain = 0
KMC1 131224Z 26004KT M04/M04 A3024 RMK A01 T10351035  RH  100%=      5-min Rain = 0
KMC1 131225Z 26004KT M04/M04 A3024 RMK A01 T10351035  RH  100%=      5-min Rain = 0
KMC1 131226Z 26005KT M04/M04 A3024 RMK A01 T10351035  RH  100%=      5-min Rain = 0
KMC1 131227Z 26005KT M04/M04 A3024 RMK A01 T10351035  RH  100%=      5-min Rain = 0
KMC1 131228Z 27005KT M04/M04 A3024 RMK A01 T10351035  RH  100%=      5-min Rain = 0
KMC1 131229Z 27005KT M04/M04 A3024 RMK A01 T10361036  RH  100%=      5-min Rain = 0
KMC1 131230Z 27005KT M04/M04 A3024 RMK A01 T10361036  RH  100%=      5-min Rain = 0
KMC1 131231Z 27004KT M04/M04 A3024 RMK A01 T10361036  RH  100%=      5-min Rain = 0
KMC1 131232Z 27005KT M04/M04 A3024 RMK A01 T10361036  RH  100%=      5-min Rain = 0
KMC1 131233Z 27005KT M04/M04 A3024 RMK A01 T10361036  RH  100%=      5-min Rain = 0
KMC1 131234Z 27005KT M04/M04 A3024 RMK A01 T10361036  RH  100%=      5-min Rain = 0
KMC1 131235Z 27005KT M04/M04 A3024 RMK A01 T10361036  RH  100%=      5-min Rain = 0
KMC1 131236Z 27005KT M04/M04 A3024 RMK A01 T10361036  RH  100%=      5-min Rain = 0
KMC1 131237Z 27004KT M04/M04 A3024 RMK A01 T10361036  RH  100%=      5-min Rain = 0
KMC1 131238Z 27005KT M04/M04 A3024 RMK A01 T10361036  RH  100%=      5-min Rain = 0
KMC1 131239Z 26005KT M04/M04 A3024 RMK A01 T10361036  RH  100%=      5-min Rain = 0
KMC1 131240Z 26006KT M04/M04 A3024 RMK A01 T10361036  RH  100%=      5-min Rain = 0
KMC1 131241Z 26005KT M04/M04 A3024 RMK A01 T10361036  RH  100%=      5-min Rain = 0
KMC1 131242Z 26005KT M04/M04 A3024 RMK A01 T10361036  RH  100%=      5-min Rain = 0
KMC1 131243Z 26005KT M04/M04 A3024 RMK A01 T10351036  RH  100%=      5-min Rain = 0
KMC1 131244Z 26005KT M04/M04 A3024 RMK A01 T10351035  RH  100%=      5-min Rain = 0
KMC1 131245Z 26005KT M03/M03 A3024 RMK A01 T10341034  RH  100%=      5-min Rain = 0
KMC1 131246Z 26005KT M03/M03 A3024 RMK A01 T10341034  RH  100%=      5-min Rain = 0
KMC1 131247Z 26005KT M03/M03 A3024 RMK A01 T10341034  RH  100%=      5-min Rain = 0
KMC1 131248Z 26005KT M03/M03 A3024 RMK A01 T10341034  RH  100%=      5-min Rain = 0
KMC1 131249Z 26005KT M03/M03 A3024 RMK A01 T10341034  RH  100%=      5-min Rain = 0
KMC1 131250Z 26005KT M03/M03 A3024 RMK A01 T10341034  RH  100%=      5-min Rain = 0
KMC1 131251Z 26005KT M03/M03 A3024 RMK A01 T10341034  RH  100%=      5-min Rain = 0
KMC1 131252Z 26005KT M03/M03 A3024 RMK A01 T10341034  RH  100%=      5-min Rain = 0
KMC1 131253Z 26005KT M04/M04 A3024 RMK A01 T10351035  RH  100%=      5-min Rain = 0
KMC1 131254Z 26005KT M04/M04 A3024 RMK A01 T10351035  RH  100%=      5-min Rain = 0
KMC1 131255Z 27005KT M04/M04 A3024 RMK A01 T10351036  RH  100%=      5-min Rain = 0
KMC1 131256Z 26005KT M04/M04 A3024 RMK A01 T10351036  RH  100%=      5-min Rain = 0
KMC1 131257Z 26005KT M04/M04 A3024 RMK A01 T10361036  RH  100%=      5-min Rain = 0
KMC1 131258Z 26005KT M04/M04 A3024 RMK A01 T10361036  RH  100%=      5-min Rain = 0
KMC1 131259Z 26005KT M04/M04 A3024 RMK A01 T10361036  RH  100%=      5-min Rain = 0
KMC1 131300Z 26005KT M04/M04 A3024 RMK A01 T10361036  RH  100%=      5-min Rain = 0
KMC1 131301Z 26005KT M04/M04 A3024 RMK A01 T10361036  RH  100%=      5-min Rain = 0
KMC1 131302Z 26005KT M04/M04 A3024 RMK A01 T10361036  RH  100%=      5-min Rain = 0
KMC1 131303Z 26005KT M04/M04 A3024 RMK A01 T10371037  RH  100%=      5-min Rain = 0
KMC1 131304Z 26005KT M04/M04 A3024 RMK A01 T10371037  RH  100%=      5-min Rain = 0
KMC1 131305Z 26005KT M04/M04 A3024 RMK A01 T10371037  RH  100%=      5-min Rain = 0
KMC1 131306Z 26005KT M04/M04 A3024 RMK A01 T10371037  RH  100%=      5-min Rain = 0
KMC1 131307Z 26006KT M04/M04 A3024 RMK A01 T10371037  RH  100%=      5-min Rain = 0
KMC1 131308Z 26006KT M04/M04 A3024 RMK A01 T10371037  RH  100%=      5-min Rain = 0
KMC1 131309Z 26006KT M04/M04 A3024 RMK A01 T10371037  RH  100%=      5-min Rain = 0
KMC1 131310Z 26006KT M04/M04 A3024 RMK A01 T10371037  RH  100%=      5-min Rain = 0
KMC1 131311Z 26005KT M04/M04 A3024 RMK A01 T10371037  RH  100%=      5-min Rain = 0
KMC1 131312Z 26006KT M04/M04 A3024 RMK A01 T10371037  RH  100%=      5-min Rain = 0
KMC1 131313Z 26006KT M04/M04 A3024 RMK A01 T10371037  RH  100%=      5-min Rain = 0
KMC1 131314Z 26005KT M04/M04 A3023 RMK A01 T10361037  RH  100%=      5-min Rain = 0
KMC1 131315Z 25005KT M04/M04 A3023 RMK A01 T10361037  RH  100%=      5-min Rain = 0
KMC1 131316Z 26005KT M04/M04 A3023 RMK A01 T10361037  RH  100%=      5-min Rain = 0
KMC1 131317Z 26005KT M04/M04 A3023 RMK A01 T10361036  RH  100%=      5-min Rain = 0
KMC1 131318Z 25005KT M04/M04 A3023 RMK A01 T10361037  RH  100%=      5-min Rain = 0
KMC1 131319Z 26005KT M04/M04 A3023 RMK A01 T10361036  RH  100%=      5-min Rain = 0
KMC1 131320Z 26005KT M04/M04 A3023 RMK A01 T10361036  RH  100%=      5-min Rain = 0
KMC1 131321Z 26005KT M04/M04 A3023 RMK A01 T10361036  RH  100%=      5-min Rain = 0
KMC1 131322Z 26005KT M04/M04 A3023 RMK A01 T10361036  RH  100%=      5-min Rain = 0
KMC1 131323Z 26005KT M04/M04 A3023 RMK A01 T10361036  RH  100%=      5-min Rain = 0
KMC1 131324Z 26005KT M04/M04 A3023 RMK A01 T10361036  RH  100%=      5-min Rain = 0
KMC1 131325Z 26005KT M04/M04 A3023 RMK A01 T10361036  RH  100%=      5-min Rain = 0
KMC1 131326Z 26005KT M04/M04 A3023 RMK A01 T10361036  RH  100%=      5-min Rain = 0
KMC1 131327Z 26005KT M04/M04 A3023 RMK A01 T10361036  RH  100%=      5-min Rain = 0
KMC1 131328Z 26005KT M04/M04 A3023 RMK A01 T10361036  RH  100%=      5-min Rain = 0
KMC1 131329Z 26004KT M04/M04 A3022 RMK A01 T10361036  RH  100%=      5-min Rain = 0
KMC1 131330Z 25004KT M04/M04 A3022 RMK A01 T10361037  RH  100%=      5-min Rain = 0
KMC1 131331Z 25004KT M04/M04 A3022 RMK A01 T10361036  RH  100%=      5-min Rain = 0
KMC1 131332Z 25004KT M04/M04 A3022 RMK A01 T10371037  RH  100%=      5-min Rain = 0
KMC1 131333Z 25004KT M04/M04 A3022 RMK A01 T10371037  RH  100%=      5-min Rain = 0
KMC1 131334Z 25004KT M04/M04 A3022 RMK A01 T10381038  RH  100%=      5-min Rain = 0
KMC1 131335Z 25004KT M04/M04 A3022 RMK A01 T10381038  RH  100%=      5-min Rain = 0
KMC1 131336Z 26005KT M04/M04 A3022 RMK A01 T10381038  RH  100%=      5-min Rain = 0
KMC1 131337Z 26005KT M04/M04 A3022 RMK A01 T10391039  RH  100%=      5-min Rain = 0
KMC1 131338Z 26004KT M04/M04 A3022 RMK A01 T10401040  RH  100%=      5-min Rain = 0
KMC1 131339Z 26004KT M04/M04 A3022 RMK A01 T10401040  RH  100%=      5-min Rain = 0
KMC1 131340Z 26004KT M04/M04 A3022 RMK A01 T10391040  RH  100%=      5-min Rain = 0
KMC1 131341Z 26004KT M04/M04 A3022 RMK A01 T10401040  RH  100%=      5-min Rain = 0
KMC1 131342Z 26004KT M04/M04 A3022 RMK A01 T10401040  RH  100%=      5-min Rain = 0
KMC1 131343Z 26004KT M04/M04 A3022 RMK A01 T10401040  RH  100%=      5-min Rain = 0
KMC1 131344Z 26004KT M04/M04 A3021 RMK A01 T10401040  RH  100%=      5-min Rain = 0
KMC1 131345Z 26004KT M04/M04 A3021 RMK A01 T10401040  RH  100%=      5-min Rain = 0
KMC1 131346Z 26004KT M04/M04 A3021 RMK A01 T10401040  RH  100%=      5-min Rain = 0
KMC1 131347Z 26004KT M04/M04 A3021 RMK A01 T10401040  RH  100%=      5-min Rain = 0
KMC1 131348Z 26004KT M04/M04 A3021 RMK A01 T10401041  RH  100%=      5-min Rain = 0
KMC1 131349Z 26004KT M04/M04 A3021 RMK A01 T10411041  RH  100%=      5-min Rain = 0
KMC1 131350Z 26004KT M04/M04 A3021 RMK A01 T10411041  RH  100%=      5-min Rain = 0
KMC1 131351Z 26004KT M04/M04 A3021 RMK A01 T10411041  RH  100%=      5-min Rain = 0
KMC1 131352Z 25004KT M04/M04 A3021 RMK A01 T10411042  RH  100%=      5-min Rain = 0
KMC1 131353Z 25004KT M04/M04 A3021 RMK A01 T10421042  RH  100%=      5-min Rain = 0
KMC1 131354Z 25004KT M04/M04 A3021 RMK A01 T10411042  RH  100%=      5-min Rain = 0
KMC1 131355Z 25004KT M04/M04 A3021 RMK A01 T10411042  RH  100%=      5-min Rain = 0
KMC1 131356Z 25004KT M04/M04 A3021 RMK A01 T10411041  RH  100%=      5-min Rain = 0
KMC1 131357Z 25004KT M04/M04 A3021 RMK A01 T10411041  RH  100%=      5-min Rain = 0
KMC1 131358Z 25004KT M04/M04 A3021 RMK A01 T10401041  RH  100%=      5-min Rain = 0
KMC1 131359Z 26004KT M04/M04 A3021 RMK A01 T10401040  RH  100%=      5-min Rain = 0
KMC1 131400Z 26003KT M04/M04 A3021 RMK A01 T10401040  RH  100%=      5-min Rain = 0
KMC1 131401Z 25003KT M04/M04 A3021 RMK A01 T10401040  RH  100%=      5-min Rain = 0
KMC1 131402Z 25003KT M04/M04 A3021 RMK A01 T10401040  RH  100%=      5-min Rain = 0
KMC1 131403Z 25003KT M04/M04 A3021 RMK A01 T10401040  RH  100%=      5-min Rain = 0
KMC1 131404Z 24003KT M04/M04 A3021 RMK A01 T10401040  RH  100%=      5-min Rain = 0
KMC1 131405Z 24003KT M04/M04 A3021 RMK A01 T10401040  RH  100%=      5-min Rain = 0
KMC1 131406Z 23003KT M04/M04 A3021 RMK A01 T10401040  RH  100%=      5-min Rain = 0
KMC1 131407Z 22003KT M04/M04 A3021 RMK A01 T10401040  RH  100%=      5-min Rain = 0
KMC1 131408Z 22003KT M04/M04 A3021 RMK A01 T10391040  RH  100%=      5-min Rain = 0
KMC1 131409Z 22003KT M04/M04 A3021 RMK A01 T10391039  RH  100%=      5-min Rain = 0
KMC1 131410Z 22003KT M04/M04 A3021 RMK A01 T10391039  RH  100%=      5-min Rain = 0
KMC1 131411Z 23003KT M04/M04 A3021 RMK A01 T10381038  RH  100%=      5-min Rain = 0
KMC1 131412Z 22003KT M04/M04 A3021 RMK A01 T10381038  RH  100%=      5-min Rain = 0
KMC1 131413Z 22003KT M04/M04 A3021 RMK A01 T10371037  RH  100%=      5-min Rain = 0
KMC1 131414Z 23003KT M04/M04 A3021 RMK A01 T10361037  RH  100%=      5-min Rain = 0
KMC1 131415Z 23003KT M04/M04 A3021 RMK A01 T10361036  RH  100%=      5-min Rain = 0
KMC1 131416Z 22003KT M04/M04 A3021 RMK A01 T10351035  RH  100%=      5-min Rain = 0
KMC1 131417Z 22003KT M04/M04 A3021 RMK A01 T10351035  RH  100%=      5-min Rain = 0
KMC1 131418Z 22003KT M03/M03 A3021 RMK A01 T10341034  RH  100%=      5-min Rain = 0
KMC1 131419Z 22003KT M03/M03 A3021 RMK A01 T10341034  RH  100%=      5-min Rain = 0
KMC1 131420Z 22003KT M03/M03 A3021 RMK A01 T10331034  RH  100%=      5-min Rain = 0
KMC1 131421Z 22003KT M03/M03 A3021 RMK A01 T10321033  RH  099%=      5-min Rain = 0
KMC1 131422Z 22003KT M03/M03 A3021 RMK A01 T10321033  RH  099%=      5-min Rain = 0
KMC1 131423Z 22003KT M03/M03 A3021 RMK A01 T10311032  RH  099%=      5-min Rain = 0
KMC1 131424Z 23003KT M03/M03 A3021 RMK A01 T10311032  RH  099%=      5-min Rain = 0
KMC1 131425Z 22003KT M03/M03 A3021 RMK A01 T10301032  RH  099%=      5-min Rain = 0
KMC1 131426Z 22003KT M03/M03 A3021 RMK A01 T10301031  RH  099%=      5-min Rain = 0
KMC1 131427Z 22003KT M03/M03 A3021 RMK A01 T10291032  RH  099%=      5-min Rain = 0
KMC1 131428Z 22003KT M03/M03 A3021 RMK A01 T10291031  RH  098%=      5-min Rain = 0
KMC1 131429Z 22003KT M03/M03 A3021 RMK A01 T10281031  RH  098%=      5-min Rain = 0
KMC1 131430Z 21003KT M03/M03 A3021 RMK A01 T10281030  RH  098%=      5-min Rain = 0
KMC1 131431Z 21003KT M03/M03 A3021 RMK A01 T10271030  RH  098%=      5-min Rain = 0
KMC1 131432Z 22003KT M03/M03 A3021 RMK A01 T10261029  RH  098%=      5-min Rain = 0
KMC1 131433Z 21003KT M03/M03 A3021 RMK A01 T10251028  RH  098%=      5-min Rain = 0
KMC1 131434Z 21003KT M02/M03 A3021 RMK A01 T10241027  RH  098%=      5-min Rain = 0
KMC1 131435Z 21003KT M02/M03 A3021 RMK A01 T10231027  RH  098%=      5-min Rain = 0
KMC1 131436Z 21003KT M02/M03 A3021 RMK A01 T10231027  RH  097%=      5-min Rain = 0
KMC1 131437Z 21003KT M02/M03 A3021 RMK A01 T10221026  RH  097%=      5-min Rain = 0
KMC1 131438Z 21003KT M02/M03 A3021 RMK A01 T10211025  RH  097%=      5-min Rain = 0
KMC1 131439Z 21003KT M02/M02 A3021 RMK A01 T10201024  RH  097%=      5-min Rain = 0
KMC1 131440Z 21003KT M02/M02 A3021 RMK A01 T10191023  RH  097%=      5-min Rain = 0
KMC1 131441Z 21003KT M02/M02 A3021 RMK A01 T10181022  RH  097%=      5-min Rain = 0
KMC1 131442Z 21004KT M02/M02 A3021 RMK A01 T10181022  RH  097%=      5-min Rain = 0
KMC1 131443Z 21003KT M02/M02 A3021 RMK A01 T10161021  RH  097%=      5-min Rain = 0
KMC1 131444Z 21003KT M02/M02 A3021 RMK A01 T10151020  RH  097%=      5-min Rain = 0
KMC1 131445Z 21003KT M01/M02 A3021 RMK A01 T10141018  RH  097%=      5-min Rain = 0
KMC1 131446Z 21003KT M01/M02 A3021 RMK A01 T10121016  RH  097%=      5-min Rain = 0
KMC1 131447Z 21003KT M01/M02 A3021 RMK A01 T10111016  RH  097%=      5-min Rain = 0
KMC1 131448Z 21003KT M01/M02 A3021 RMK A01 T10111016  RH  096%=      5-min Rain = 0
KMC1 131449Z 22003KT M01/M02 A3021 RMK A01 T10111017  RH  095%=      5-min Rain = 0
KMC1 131450Z 22003KT M01/M02 A3021 RMK A01 T10101017  RH  095%=      5-min Rain = 0
KMC1 131451Z 21003KT M01/M02 A3021 RMK A01 T10101018  RH  095%=      5-min Rain = 0
KMC1 131452Z 22003KT M01/M02 A3021 RMK A01 T10091016  RH  095%=      5-min Rain = 0
KMC1 131453Z 22003KT M01/M01 A3021 RMK A01 T10071014  RH  095%=      5-min Rain = 0
KMC1 131454Z 23002KT M01/M02 A3021 RMK A01 T10071015  RH  095%=      5-min Rain = 0
KMC1 131455Z 22003KT M01/M02 A3021 RMK A01 T10071015  RH  094%=      5-min Rain = 0
KMC1 131456Z 23003KT M01/M01 A3021 RMK A01 T10061014  RH  094%=      5-min Rain = 0
KMC1 131457Z 23002KT M01/M01 A3021 RMK A01 T10051014  RH  094%=      5-min Rain = 0
KMC1 131458Z 22003KT M01/M01 A3021 RMK A01 T10051013  RH  094%=      5-min Rain = 0
KMC1 131459Z 23002KT M00/M01 A302 RMK A01 T10031011  RH  094%=      5-min Rain = 0
KMC1 131500Z 22003KT M00/M01 A302 RMK A01 T10021010  RH  095%=      5-min Rain = 0
KMC1 131501Z 22002KT M00/M01 A302 RMK A01 T10011009  RH  095%=      5-min Rain = 0
KMC1 131502Z 22003KT 00/01 A302 RMK A01 T000000-7  RH  095%=      5-min Rain = 0
KMC1 131503Z 22003KT 00/M01 A302 RMK A01 T00021005  RH  095%=      5-min Rain = 0
KMC1 131504Z 22004KT 00/M00 A302 RMK A01 T00041002  RH  096%=      5-min Rain = 0
KMC1 131505Z 22003KT 01/M00 A302 RMK A01 T00061001  RH  096%=      5-min Rain = 0
KMC1 131506Z 22005KT 01/00 A302 RMK A01 T00080001  RH  095%=      5-min Rain = 0
KMC1 131507Z 22004KT 01/00 A302 RMK A01 T00100003  RH  095%=      5-min Rain = 0
KMC1 131508Z 23004KT 01/01 A302 RMK A01 T00120005  RH  095%=      5-min Rain = 0
KMC1 131509Z 23004KT 01/01 A302 RMK A01 T00140005  RH  094%=      5-min Rain = 0
KMC1 131510Z 22004KT 02/01 A302 RMK A01 T00160005  RH  092%=      5-min Rain = 0
KMC1 131511Z 22004KT 02/01 A302 RMK A01 T00170005  RH  091%=      5-min Rain = 0
KMC1 131512Z 23003KT 02/01 A302 RMK A01 T00190006  RH  091%=      5-min Rain = 0
KMC1 131513Z 23003KT 02/01 A302 RMK A01 T00210008  RH  091%=      5-min Rain = 0
KMC1 131514Z 24003KT 02/01 A302 RMK A01 T00220008  RH  090%=      5-min Rain = 0
KMC1 131515Z 23003KT 02/01 A302 RMK A01 T00230008  RH  090%=      5-min Rain = 0
KMC1 131516Z 24003KT 02/01 A302 RMK A01 T00240008  RH  089%=      5-min Rain = 0
KMC1 131517Z 25002KT 02/01 A302 RMK A01 T00240007  RH  088%=      5-min Rain = 0
KMC1 131518Z 24003KT 02/01 A302 RMK A01 T00230005  RH  088%=      5-min Rain = 0
KMC1 131519Z 25003KT 02/00 A302 RMK A01 T00220003  RH  087%=      5-min Rain = 0
KMC1 131520Z 25003KT 02/00 A302 RMK A01 T00220003  RH  088%=      5-min Rain = 0
KMC1 131521Z 26003KT 02/00 A302 RMK A01 T00210003  RH  088%=      5-min Rain = 0
KMC1 131522Z 25003KT 02/00 A302 RMK A01 T00210003  RH  088%=      5-min Rain = 0
KMC1 131523Z 25003KT 02/00 A302 RMK A01 T00200003  RH  088%=      5-min Rain = 0
KMC1 131524Z 24004KT 02/00 A302 RMK A01 T00210004  RH  089%=      5-min Rain = 0
KMC1 131525Z 24004KT 02/01 A302 RMK A01 T00220007  RH  090%=      5-min Rain = 0
KMC1 131526Z 24002KT 02/01 A302 RMK A01 T00240010  RH  090%=      5-min Rain = 0
KMC1 131527Z 24003KT 03/01 A302 RMK A01 T00260011  RH  090%=      5-min Rain = 0
KMC1 131528Z 25002KT 03/01 A302 RMK A01 T00270010  RH  089%=      5-min Rain = 0
KMC1 131529Z 26003KT 03/01 A302 RMK A01 T00280011  RH  089%=      5-min Rain = 0
KMC1 131530Z 28003KT 03/01 A302 RMK A01 T00280011  RH  088%=      5-min Rain = 0
KMC1 131531Z 28004KT 03/01 A302 RMK A01 T00280010  RH  088%=      5-min Rain = 0
KMC1 131532Z 28004KT 03/01 A302 RMK A01 T00290010  RH  088%=      5-min Rain = 0
KMC1 131533Z 28004KT 03/01 A302 RMK A01 T00290013  RH  089%=      5-min Rain = 0
KMC1 131534Z 28003KT 03/01 A302 RMK A01 T00300011  RH  088%=      5-min Rain = 0
KMC1 131535Z 27004KT 03/01 A302 RMK A01 T00300011  RH  088%=      5-min Rain = 0
KMC1 131536Z 28003KT 03/01 A302 RMK A01 T00290010  RH  087%=      5-min Rain = 0
KMC1 131537Z 27003KT 03/01 A302 RMK A01 T00300012  RH  088%=      5-min Rain = 0
KMC1 131538Z 26002KT 03/01 A302 RMK A01 T00320014  RH  088%=      5-min Rain = 0
KMC1 131539Z 27003KT 03/02 A302 RMK A01 T00330016  RH  089%=      5-min Rain = 0
KMC1 131540Z 25003KT 04/02 A302 RMK A01 T00350018  RH  089%=      5-min Rain = 0
KMC1 131541Z 25002KT 04/02 A302 RMK A01 T00370018  RH  088%=      5-min Rain = 0
KMC1 131542Z 25004KT 04/02 A302 RMK A01 T00390020  RH  087%=      5-min Rain = 0
KMC1 131543Z 24004KT 04/02 A302 RMK A01 T00420021  RH  086%=      5-min Rain = 0
KMC1 131544Z 25003KT 04/02 A302 RMK A01 T00440019  RH  084%=      5-min Rain = 0
KMC1 131545Z 25003KT 05/02 A302 RMK A01 T00470018  RH  082%=      5-min Rain = 0
KMC1 131546Z 24004KT 05/02 A302 RMK A01 T00490019  RH  081%=      5-min Rain = 0
KMC1 131547Z 24004KT 05/02 A302 RMK A01 T00510017  RH  079%=      5-min Rain = 0
KMC1 131548Z 26003KT 05/02 A302 RMK A01 T00530019  RH  079%=      5-min Rain = 0
KMC1 131549Z 24005KT 06/02 A302 RMK A01 T00550022  RH  079%=      5-min Rain = 0
KMC1 131550Z 26004KT 06/02 A302 RMK A01 T00580022  RH  078%=      5-min Rain = 0
KMC1 131551Z 25005KT 06/02 A302 RMK A01 T00600019  RH  075%=      5-min Rain = 0
KMC1 131552Z 25005KT 06/02 A302 RMK A01 T00620016  RH  073%=      5-min Rain = 0
KMC1 131553Z 25006KT 06/01 A302 RMK A01 T00640013  RH  070%=      5-min Rain = 0
KMC1 131554Z 24008KT 07/01 A302 RMK A01 T00650011  RH  068%=      5-min Rain = 0
KMC1 131555Z 23008KT 07/01 A302 RMK A01 T00660007  RH  066%=      5-min Rain = 0
KMC1 131556Z 24006KT 07/01 A302 RMK A01 T00670005  RH  065%=      5-min Rain = 0
KMC1 131557Z 25006KT 07/01 A302 RMK A01 T00670006  RH  065%=      5-min Rain = 0
KMC1 131558Z 25007KT 07/01 A302 RMK A01 T00680008  RH  065%=      5-min Rain = 0
KMC1 131559Z 25006KT 07/01 A302 RMK A01 T00680006  RH  064%=      5-min Rain = 0
KMC1 131600Z 26006KT 07/01 A302 RMK A01 T00690008  RH  065%=      5-min Rain = 0
KMC1 131601Z 25007KT 07/01 A302 RMK A01 T00700010  RH  066%=      5-min Rain = 0
KMC1 131602Z 25009KT 07/00 A302 RMK A01 T00700004  RH  063%=      5-min Rain = 0
KMC1 131603Z 23006KT 07/00 A302 RMK A01 T00700001  RH  062%=      5-min Rain = 0
KMC1 131604Z 24007KT 07/00 A302 RMK A01 T00700002  RH  062%=      5-min Rain = 0
KMC1 131605Z 24007KT 07/00 A302 RMK A01 T00710003  RH  062%=      5-min Rain = 0
KMC1 131606Z 24009KT 07/00 A302 RMK A01 T00710001  RH  061%=      5-min Rain = 0
KMC1 131607Z 25008KT 07/M00 A302 RMK A01 T00721001  RH  060%=      5-min Rain = 0
KMC1 131608Z 25010KT 07/M00 A302 RMK A01 T00721001  RH  060%=      5-min Rain = 0
KMC1 131609Z 24008KT 07/M00 A302 RMK A01 T00721003  RH  059%=      5-min Rain = 0
KMC1 131610Z 25007KT 07/M00 A302 RMK A01 T00731001  RH  059%=      5-min Rain = 0
KMC1 131611Z 25005KT 07/01 A302 RMK A01 T00740005  RH  062%=      5-min Rain = 0
KMC1 131612Z 24006KT 08/01 A302 RMK A01 T00750006  RH  061%=      5-min Rain = 0
KMC1 131613Z 24005KT 08/00 A302 RMK A01 T00760002  RH  059%=      5-min Rain = 0
KMC1 131614Z 25007KT 08/00 A302 RMK A01 T00770003  RH  059%=      5-min Rain = 0
KMC1 131615Z 25006KT 08/00 A302 RMK A01 T00780001  RH  058%=      5-min Rain = 0
KMC1 131616Z 24007KT 08/00 A302 RMK A01 T00790001  RH  058%=      5-min Rain = 0
KMC1 131617Z 24008KT 08/00 A302 RMK A01 T007900-0  RH  057%=      5-min Rain = 0
KMC1 131618Z 25009KT 08/00 A302 RMK A01 T00800001  RH  058%=      5-min Rain = 0
KMC1 131619Z 25007KT 08/M00 A302 RMK A01 T00801001  RH  057%=      5-min Rain = 0
KMC1 131620Z 25005KT 08/00 A302 RMK A01 T00800003  RH  058%=      5-min Rain = 0
KMC1 131621Z 24008KT 08/01 A302 RMK A01 T00820007  RH  059%=      5-min Rain = 0
KMC1 131622Z 24006KT 08/00 A302 RMK A01 T00830004  RH  057%=      5-min Rain = 0
KMC1 131623Z 24003KT 08/00 A3019 RMK A01 T00840004  RH  057%=      5-min Rain = 0
KMC1 131624Z 22004KT 09/01 A3019 RMK A01 T00860010  RH  059%=      5-min Rain = 0
KMC1 131625Z 24005KT 09/01 A3019 RMK A01 T00880008  RH  057%=      5-min Rain = 0
KMC1 131626Z 26003KT 09/01 A3019 RMK A01 T00890008  RH  057%=      5-min Rain = 0
KMC1 131627Z 25004KT 09/01 A3019 RMK A01 T00910010  RH  057%=      5-min Rain = 0
KMC1 131628Z 25008KT 09/01 A3019 RMK A01 T00920007  RH  056%=      5-min Rain = 0
KMC1 131629Z 24007G12KT 09/00 A3019 RMK A01 T00920002  RH  053%=      5-min Rain = 0
KMC1 131630Z 24008KT 09/00 A3019 RMK A01 T00910000  RH  053%=      5-min Rain = 0
KMC1 131631Z 24005KT 09/M00 A3019 RMK A01 T00901001  RH  053%=      5-min Rain = 0
KMC1 131632Z 24006KT 09/00 A3019 RMK A01 T00900002  RH  054%=      5-min Rain = 0
KMC1 131633Z 24006KT 09/00 A3019 RMK A01 T00910001  RH  053%=      5-min Rain = 0
KMC1 131634Z 24005KT 09/00 A3019 RMK A01 T00910001  RH  053%=      5-min Rain = 0
KMC1 131635Z 24004KT 09/00 A3019 RMK A01 T00930004  RH  054%=      5-min Rain = 0
KMC1 131636Z 24005KT 10/01 A3019 RMK A01 T00950005  RH  053%=      5-min Rain = 0
KMC1 131637Z 25006KT 10/01 A3019 RMK A01 T00960005  RH  053%=      5-min Rain = 0
KMC1 131638Z 25003KT 10/01 A3019 RMK A01 T00980007  RH  053%=      5-min Rain = 0
KMC1 131639Z 25005KT 10/01 A3019 RMK A01 T00990008  RH  053%=      5-min Rain = 0
KMC1 131640Z 23008KT 10/00 A3019 RMK A01 T01010004  RH  051%=      5-min Rain = 0
KMC1 131641Z 25005KT 10/00 A3019 RMK A01 T01000002  RH  051%=      5-min Rain = 0
KMC1 131642Z 25006KT 10/00 A3019 RMK A01 T01000004  RH  051%=      5-min Rain = 0
KMC1 131643Z 24009KT 10/00 A3019 RMK A01 T01000000  RH  050%=      5-min Rain = 0
KMC1 131644Z 26007KT 10/00 A3019 RMK A01 T01000000  RH  050%=      5-min Rain = 0
KMC1 131645Z 25006KT 10/00 A3019 RMK A01 T01000003  RH  051%=      5-min Rain = 0
KMC1 131646Z 25004KT 10/00 A3019 RMK A01 T01010003  RH  051%=      5-min Rain = 0
KMC1 131647Z 23005KT 10/00 A3019 RMK A01 T01020004  RH  051%=      5-min Rain = 0
KMC1 131648Z 24004KT 10/01 A3019 RMK A01 T01030006  RH  051%=      5-min Rain = 0
KMC1 131649Z 26004KT 11/01 A3019 RMK A01 T01060006  RH  050%=      5-min Rain = 0
KMC1 131650Z 25005KT 11/00 A3018 RMK A01 T01070004  RH  049%=      5-min Rain = 0
KMC1 131651Z 26004KT 11/01 A3018 RMK A01 T01080007  RH  050%=      5-min Rain = 0
KMC1 131652Z 25005KT 11/01 A3018 RMK A01 T01080007  RH  050%=      5-min Rain = 0
KMC1 131653Z 24006KT 11/01 A3018 RMK A01 T01090006  RH  049%=      5-min Rain = 0
KMC1 131654Z 23006KT 11/01 A3018 RMK A01 T01090007  RH  049%=      5-min Rain = 0
KMC1 131655Z 25005KT 11/00 A3018 RMK A01 T01090004  RH  048%=      5-min Rain = 0
KMC1 131656Z 26004KT 11/01 A3018 RMK A01 T01090006  RH  049%=      5-min Rain = 0
KMC1 131657Z 26006KT 11/01 A3018 RMK A01 T01110011  RH  050%=      5-min Rain = 0
KMC1 131658Z 26007KT 11/00 A3018 RMK A01 T01120003  RH  047%=      5-min Rain = 0
KMC1 131659Z 27008KT 11/00 A3018 RMK A01 T01110002  RH  047%=      5-min Rain = 0
KMC1 131700Z 24008KT 11/00 A3018 RMK A01 T01100001  RH  047%=      5-min Rain = 0
KMC1 131701Z 25008KT 11/M00 A3018 RMK A01 T01101001  RH  046%=      5-min Rain = 0
KMC1 131702Z 24007KT 11/M00 A3018 RMK A01 T01101002  RH  046%=      5-min Rain = 0
KMC1 131703Z 24006KT 11/00 A3018 RMK A01 T01100000  RH  047%=      5-min Rain = 0
KMC1 131704Z 24005G10KT 11/00 A3018 RMK A01 T01100002  RH  047%=      5-min Rain = 0
KMC1 131705Z 25009KT 11/00 A3018 RMK A01 T01120002  RH  047%=      5-min Rain = 0
KMC1 131706Z 25008KT 11/M00 A3018 RMK A01 T01121001  RH  046%=      5-min Rain = 0
KMC1 131707Z 24008KT 11/M00 A3018 RMK A01 T01111003  RH  045%=      5-min Rain = 0
KMC1 131708Z 25007KT 11/M00 A3018 RMK A01 T01101001  RH  046%=      5-min Rain = 0
KMC1 131709Z 26008KT 11/00 A3018 RMK A01 T01110000  RH  046%=      5-min Rain = 0
KMC1 131710Z 25008KT 11/M00 A3018 RMK A01 T01111004  RH  045%=      5-min Rain = 0
KMC1 131711Z 25009KT 11/M01 A3018 RMK A01 T01111006  RH  044%=      5-min Rain = 0
KMC1 131712Z 26008KT 11/M01 A3018 RMK A01 T01111005  RH  045%=      5-min Rain = 0
KMC1 131713Z 26007KT 11/M00 A3018 RMK A01 T01121002  RH  045%=      5-min Rain = 0
KMC1 131714Z 25009KT 11/M00 A3018 RMK A01 T01141002  RH  045%=      5-min Rain = 0
KMC1 131715Z 24007KT 11/M01 A3018 RMK A01 T01141008  RH  043%=      5-min Rain = 0
KMC1 131716Z 24009KT 11/M01 A3018 RMK A01 T01141005  RH  044%=      5-min Rain = 0
KMC1 131717Z 25009KT 11/M01 A3018 RMK A01 T01141006  RH  043%=      5-min Rain = 0
KMC1 131718Z 25008KT 11/M01 A3018 RMK A01 T01141006  RH  043%=      5-min Rain = 0
KMC1 131719Z 25006KT 11/M00 A3018 RMK A01 T01141004  RH  044%=      5-min Rain = 0
KMC1 131720Z 26009KT 12/M00 A3018 RMK A01 T01161002  RH  044%=      5-min Rain = 0
KMC1 131721Z 26006KT 12/M00 A3018 RMK A01 T01171001  RH  044%=      5-min Rain = 0
KMC1 131722Z 25004KT 12/00 A3018 RMK A01 T01190002  RH  045%=      5-min Rain = 0
KMC1 131723Z 25005KT 12/00 A3018 RMK A01 T01220001  RH  043%=      5-min Rain = 0
KMC1 131724Z 26009KT 12/M00 A3018 RMK A01 T01221003  RH  042%=      5-min Rain = 0
KMC1 131725Z 25007KT 12/M01 A3018 RMK A01 T01211005  RH  042%=      5-min Rain = 0
KMC1 131726Z 25006KT 12/M01 A3017 RMK A01 T01201005  RH  042%=      5-min Rain = 0
KMC1 131727Z 26007KT 12/M00 A3017 RMK A01 T01201004  RH  042%=      5-min Rain = 0
KMC1 131728Z 26007KT 12/M00 A3017 RMK A01 T01211004  RH  042%=      5-min Rain = 0
KMC1 131729Z 26005KT 12/M00 A3017 RMK A01 T01221001  RH  043%=      5-min Rain = 0
KMC1 131730Z 26008KT 12/M00 A3017 RMK A01 T01241002  RH  042%=      5-min Rain = 0
KMC1 131731Z 25008KT 13/M01 A3017 RMK A01 T01251007  RH  040%=      5-min Rain = 0
KMC1 131732Z 26009KT 13/M01 A3017 RMK A01 T01251006  RH  041%=      5-min Rain = 0
KMC1 131733Z 24006KT 13/M01 A3017 RMK A01 T01251007  RH  040%=      5-min Rain = 0
KMC1 131734Z 25009KT 12/M00 A3017 RMK A01 T01241004  RH  041%=      5-min Rain = 0
KMC1 131735Z 24008KT 12/M01 A3017 RMK A01 T01241006  RH  041%=      5-min Rain = 0
KMC1 131736Z 25008KT 13/M01 A3017 RMK A01 T01251005  RH  041%=      5-min Rain = 0
KMC1 131737Z 24008KT 13/M01 A3017 RMK A01 T01251006  RH  040%=      5-min Rain = 0
KMC1 131738Z 26008KT 12/M01 A3017 RMK A01 T01241008  RH  040%=      5-min Rain = 0
KMC1 131739Z 26010KT 12/M01 A3017 RMK A01 T01241008  RH  040%=      5-min Rain = 0
KMC1 131740Z 25011KT 13/M01 A3017 RMK A01 T01251010  RH  039%=      5-min Rain = 0
KMC1 131741Z 25009KT 13/M01 A3016 RMK A01 T01251012  RH  039%=      5-min Rain = 0
KMC1 131742Z 24010KT 13/M01 A3016 RMK A01 T01261011  RH  039%=      5-min Rain = 0
KMC1 131743Z 24010KT 13/M02 A3016 RMK A01 T01261017  RH  037%=      5-min Rain = 0
KMC1 131744Z 25010G15KT 13/M02 A3016 RMK A01 T01261018  RH  037%=      5-min Rain = 0
KMC1 131745Z 25012KT 13/M02 A3016 RMK A01 T01261018  RH  037%=      5-min Rain = 0
KMC1 131746Z 25009KT 13/M02 A3016 RMK A01 T01261019  RH  037%=      5-min Rain = 0
KMC1 131747Z 25010KT 13/M02 A3016 RMK A01 T01251019  RH  037%=      5-min Rain = 0
KMC1 131748Z 26010KT 13/M02 A3016 RMK A01 T01251018  RH  037%=      5-min Rain = 0
KMC1 131749Z 26008KT 13/M02 A3016 RMK A01 T01261015  RH  038%=      5-min Rain = 0
KMC1 131750Z 26008KT 13/M01 A3016 RMK A01 T01261013  RH  038%=      5-min Rain = 0
KMC1 131751Z 25007KT 13/M01 A3016 RMK A01 T01271013  RH  038%=      5-min Rain = 0
KMC1 131752Z 24005KT 13/M01 A3016 RMK A01 T01271012  RH  038%=      5-min Rain = 0
KMC1 131753Z 23008KT 13/M01 A3016 RMK A01 T01301012  RH  037%=      5-min Rain = 0
KMC1 131754Z 24007G12KT 13/M02 A3016 RMK A01 T01321015  RH  036%=      5-min Rain = 0
KMC1 131755Z 23008KT 13/M02 A3016 RMK A01 T01321018  RH  035%=      5-min Rain = 0
KMC1 131756Z 22007KT 13/M02 A3016 RMK A01 T01321016  RH  036%=      5-min Rain = 0
KMC1 131757Z 24008KT 13/M02 A3015 RMK A01 T01321016  RH  036%=      5-min Rain = 0
KMC1 131758Z 24009G14KT 13/M02 A3015 RMK A01 T01331015  RH  036%=      5-min Rain = 0
KMC1 131759Z 22007KT 13/M01 A3015 RMK A01 T01331014  RH  036%=      5-min Rain = 0
KMC1 131800Z 26006KT 13/M01 A3015 RMK A01 T01341010  RH  037%=      5-min Rain = 0
KMC1 131801Z 24006KT 14/M01 A3015 RMK A01 T01361006  RH  037%=      5-min Rain = 0
KMC1 131802Z 24006KT 14/M01 A3015 RMK A01 T01381009  RH  036%=      5-min Rain = 0
KMC1 131803Z 24005KT 14/M01 A3015 RMK A01 T01391010  RH  036%=      5-min Rain = 0
KMC1 131804Z 26006KT 14/M01 A3015 RMK A01 T01391010  RH  036%=      5-min Rain = 0
KMC1 131805Z 25005KT 14/M01 A3015 RMK A01 T01401010  RH  036%=      5-min Rain = 0
KMC1 131806Z 23005KT 14/M01 A3014 RMK A01 T01411008  RH  036%=      5-min Rain = 0
KMC1 131807Z 23006KT 14/M01 A3014 RMK A01 T01431011  RH  035%=      5-min Rain = 0
KMC1 131808Z 23006KT 14/M01 A3014 RMK A01 T01421011  RH  035%=      5-min Rain = 0
KMC1 131809Z 23009KT 14/M01 A3014 RMK A01 T01421012  RH  035%=      5-min Rain = 0
KMC1 131810Z 25008KT 14/M01 A3014 RMK A01 T01411014  RH  034%=      5-min Rain = 0
KMC1 131811Z 23009KT 14/M01 A3014 RMK A01 T01401014  RH  035%=      5-min Rain = 0
KMC1 131812Z 22008KT 14/M02 A3014 RMK A01 T01401015  RH  034%=      5-min Rain = 0
KMC1 131813Z 24008KT 14/M02 A3014 RMK A01 T01401017  RH  034%=      5-min Rain = 0
KMC1 131814Z 23008KT 14/M02 A3014 RMK A01 T01391020  RH  033%=      5-min Rain = 0
KMC1 131815Z 22008KT 14/M02 A3014 RMK A01 T01391017  RH  034%=      5-min Rain = 0
KMC1 131816Z 23009G14KT 14/M02 A3014 RMK A01 T01401019  RH  033%=      5-min Rain = 0
KMC1 131817Z 22010KT 14/M02 A3014 RMK A01 T01401021  RH  033%=      5-min Rain = 0
KMC1 131818Z 24009KT 14/M02 A3014 RMK A01 T01391023  RH  032%=      5-min Rain = 0
KMC1 131819Z 24008G13KT 14/M02 A3014 RMK A01 T01381023  RH  033%=      5-min Rain = 0
KMC1 131820Z 23011KT 14/M02 A3013 RMK A01 T01381023  RH  033%=      5-min Rain = 0
KMC1 131821Z 23008G13KT 14/M02 A3013 RMK A01 T01401019  RH  033%=      5-min Rain = 0
KMC1 131822Z 23010KT 14/M02 A3013 RMK A01 T01411021  RH  032%=      5-min Rain = 0
KMC1 131823Z 24010KT 14/M02 A3013 RMK A01 T01421024  RH  032%=      5-min Rain = 0
KMC1 131824Z 25010KT 14/M03 A3013 RMK A01 T01421025  RH  031%=      5-min Rain = 0
KMC1 131825Z 23009KT 14/M02 A3013 RMK A01 T01411024  RH  032%=      5-min Rain = 0
KMC1 131826Z 23008KT 14/M03 A3013 RMK A01 T01421025  RH  031%=      5-min Rain = 0
KMC1 131827Z 25009KT 14/M02 A3013 RMK A01 T01431023  RH  032%=      5-min Rain = 0
KMC1 131828Z 24008KT 14/M02 A3013 RMK A01 T01441023  RH  032%=      5-min Rain = 0
KMC1 131829Z 23005KT 14/M02 A3013 RMK A01 T01441018  RH  033%=      5-min Rain = 0
KMC1 131830Z 25006G13KT 15/M01 A3013 RMK A01 T01471014  RH  033%=      5-min Rain = 0
KMC1 131831Z 26010KT 15/M02 A3013 RMK A01 T01501020  RH  031%=      5-min Rain = 0
KMC1 131832Z 25009KT 15/M02 A3013 RMK A01 T01501024  RH  030%=      5-min Rain = 0
KMC1 131833Z 24008KT 15/M02 A3013 RMK A01 T01481023  RH  031%=      5-min Rain = 0
KMC1 131834Z 23009G15KT 15/M02 A3013 RMK A01 T01481019  RH  032%=      5-min Rain = 0
KMC1 131835Z 23010KT 15/M02 A3013 RMK A01 T01491024  RH  030%=      5-min Rain = 0
KMC1 131836Z 23008KT 15/M02 A3013 RMK A01 T01471024  RH  031%=      5-min Rain = 0
KMC1 131837Z 26008KT 15/M02 A3013 RMK A01 T01471019  RH  032%=      5-min Rain = 0
KMC1 131838Z 26008KT 15/M02 A3013 RMK A01 T01491021  RH  031%=      5-min Rain = 0
KMC1 131839Z 26007KT 15/M02 A3013 RMK A01 T01491024  RH  030%=      5-min Rain = 0
KMC1 131840Z 22008G13KT 15/M02 A3013 RMK A01 T01491021  RH  031%=      5-min Rain = 0
KMC1 131841Z 23009KT 15/M02 A3012 RMK A01 T01501024  RH  030%=      5-min Rain = 0
KMC1 131842Z 21010KT 15/M03 A3012 RMK A01 T01501026  RH  030%=      5-min Rain = 0
KMC1 131843Z 21009KT 15/M03 A3012 RMK A01 T01491025  RH  030%=      5-min Rain = 0
KMC1 131844Z 23010KT 15/M03 A3012 RMK A01 T01501025  RH  030%=      5-min Rain = 0
KMC1 131845Z 23008KT 15/M02 A3012 RMK A01 T01511022  RH  030%=      5-min Rain = 0
KMC1 131846Z 25008KT 15/M02 A3012 RMK A01 T01511024  RH  030%=      5-min Rain = 0
KMC1 131847Z 23009KT 15/M03 A3012 RMK A01 T01501027  RH  029%=      5-min Rain = 0
KMC1 131848Z 23006KT 15/M02 A3012 RMK A01 T01491024  RH  030%=      5-min Rain = 0
KMC1 131849Z 23007KT 15/M03 A3012 RMK A01 T01511025  RH  030%=      5-min Rain = 0
KMC1 131850Z 23010KT 15/M03 A3012 RMK A01 T01511026  RH  029%=      5-min Rain = 0
KMC1 131851Z 22010KT 15/M03 A3012 RMK A01 T01501028  RH  029%=      5-min Rain = 0
KMC1 131852Z 22008KT 15/M03 A3011 RMK A01 T01501029  RH  029%=      5-min Rain = 0
KMC1 131853Z 22009KT 15/M03 A3011 RMK A01 T01491027  RH  029%=      5-min Rain = 0
KMC1 131854Z 24011KT 15/M03 A3011 RMK A01 T01501027  RH  029%=      5-min Rain = 0
KMC1 131855Z 24009KT 15/M03 A3011 RMK A01 T01501028  RH  029%=      5-min Rain = 0
KMC1 131856Z 24009KT 15/M03 A3011 RMK A01 T01501027  RH  029%=      5-min Rain = 0
KMC1 131857Z 26010G15KT 15/M03 A3011 RMK A01 T01491027  RH  030%=      5-min Rain = 0
KMC1 131858Z 24009KT 15/M03 A3011 RMK A01 T01501027  RH  029%=      5-min Rain = 0
KMC1 131859Z 24009KT 15/M03 A3011 RMK A01 T01521026  RH  029%=      5-min Rain = 0
KMC1 131900Z 24007KT 15/M03 A3011 RMK A01 T01521031  RH  028%=      5-min Rain = 0
KMC1 131901Z 25011G16KT 15/M03 A3011 RMK A01 T01531029  RH  028%=      5-min Rain = 0
KMC1 131902Z 24009KT 15/M03 A3011 RMK A01 T01541029  RH  028%=      5-min Rain = 0
KMC1 131903Z 23008KT 15/M03 A3011 RMK A01 T01541030  RH  028%=      5-min Rain = 0
KMC1 131904Z 23011KT 15/M03 A3011 RMK A01 T01541031  RH  028%=      5-min Rain = 0
KMC1 131905Z 23009KT 15/M03 A3011 RMK A01 T01541030  RH  028%=      5-min Rain = 0
KMC1 131906Z 25007G12KT 15/M03 A3011 RMK A01 T01541029  RH  028%=      5-min Rain = 0
KMC1 131907Z 23007KT 16/M03 A3011 RMK A01 T01551026  RH  029%=      5-min Rain = 0
KMC1 131908Z 24007KT 16/M03 A3011 RMK A01 T01561028  RH  028%=      5-min Rain = 0
KMC1 131909Z 25011KT 16/M03 A3011 RMK A01 T01561028  RH  028%=      5-min Rain = 0
KMC1 131910Z 25009KT 16/M03 A3011 RMK A01 T01551026  RH  029%=      5-min Rain = 0
KMC1 131911Z 24009KT 16/M03 A3011 RMK A01 T01561029  RH  028%=      5-min Rain = 0
KMC1 131912Z 24008KT 16/M03 A3011 RMK A01 T01561031  RH  027%=      5-min Rain = 0
KMC1 131913Z 25006KT 16/M03 A301 RMK A01 T01551031  RH  028%=      5-min Rain = 0
KMC1 131914Z 25011KT 16/M03 A301 RMK A01 T01551032  RH  028%=      5-min Rain = 0
KMC1 131915Z 25009KT 16/M03 A301 RMK A01 T01551031  RH  028%=      5-min Rain = 0
KMC1 131916Z 23009KT 16/M03 A301 RMK A01 T01561030  RH  028%=      5-min Rain = 0
KMC1 131917Z 23008KT 16/M03 A301 RMK A01 T01561033  RH  027%=      5-min Rain = 0
KMC1 131918Z 23008KT 16/M03 A301 RMK A01 T01561032  RH  027%=      5-min Rain = 0
KMC1 131919Z 24007KT 16/M03 A301 RMK A01 T01561031  RH  027%=      5-min Rain = 0
KMC1 131920Z 23010KT 16/M03 A301 RMK A01 T01591026  RH  028%=      5-min Rain = 0
KMC1 131921Z 25010KT 16/M03 A301 RMK A01 T01601030  RH  027%=      5-min Rain = 0
KMC1 131922Z 26007G12KT 16/M03 A301 RMK A01 T01591026  RH  028%=      5-min Rain = 0
KMC1 131923Z 25009KT 16/M03 A301 RMK A01 T01601026  RH  028%=      5-min Rain = 0
KMC1 131924Z 25009KT 16/M03 A3009 RMK A01 T01611029  RH  027%=      5-min Rain = 0
KMC1 131925Z 26010KT 16/M03 A3009 RMK A01 T01601031  RH  027%=      5-min Rain = 0
KMC1 131926Z 23008KT 16/M03 A301 RMK A01 T01591031  RH  027%=      5-min Rain = 0
KMC1 131927Z 24010KT 16/M03 A3009 RMK A01 T01591031  RH  027%=      5-min Rain = 0
KMC1 131928Z 24009KT 16/M03 A3009 RMK A01 T01591029  RH  027%=      5-min Rain = 0
KMC1 131929Z 22009KT 16/M03 A3009 RMK A01 T01591030  RH  027%=      5-min Rain = 0
KMC1 131930Z 22005KT 16/M03 A3009 RMK A01 T01591031  RH  027%=      5-min Rain = 0
KMC1 131931Z 21007G12KT 16/M03 A3009 RMK A01 T01601027  RH  028%=      5-min Rain = 0
KMC1 131932Z 21009G14KT 16/M03 A3009 RMK A01 T01611030  RH  027%=      5-min Rain = 0
KMC1 131933Z 23009KT 16/M03 A3009 RMK A01 T01631026  RH  027%=      5-min Rain = 0
KMC1 131934Z 26006G11KT 16/M02 A3009 RMK A01 T01631024  RH  028%=      5-min Rain = 0
KMC1 131935Z 26007KT 16/M02 A3009 RMK A01 T01641023  RH  028%=      5-min Rain = 0
KMC1 131936Z 23007KT 17/M02 A3009 RMK A01 T01651021  RH  028%=      5-min Rain = 0
KMC1 131937Z 23007KT 16/M03 A3009 RMK A01 T01641031  RH  026%=      5-min Rain = 0
KMC1 131938Z 23009KT 16/M03 A3009 RMK A01 T01621029  RH  027%=      5-min Rain = 0
KMC1 131939Z 23008KT 16/M03 A3009 RMK A01 T01621026  RH  027%=      5-min Rain = 0
KMC1 131940Z 24010KT 16/M03 A3009 RMK A01 T01631028  RH  027%=      5-min Rain = 0
KMC1 131941Z 25013KT 16/M03 A3009 RMK A01 T01631028  RH  027%=      5-min Rain = 0
KMC1 131942Z 26013KT 16/M03 A3009 RMK A01 T01621032  RH  026%=      5-min Rain = 0
KMC1 131943Z 25009KT 16/M03 A3009 RMK A01 T01601030  RH  027%=      5-min Rain = 0
KMC1 131944Z 25006KT 16/M03 A3009 RMK A01 T01611026  RH  028%=      5-min Rain = 0
KMC1 131945Z 25007KT 16/M03 A3008 RMK A01 T01631028  RH  027%=      5-min Rain = 0
KMC1 131946Z 24006KT 16/M03 A3008 RMK A01 T01631028  RH  027%=      5-min Rain = 0
KMC1 131947Z 24008KT 16/M03 A3008 RMK A01 T01631027  RH  027%=      5-min Rain = 0
KMC1 131948Z 23008KT 16/M03 A3008 RMK A01 T01641029  RH  026%=      5-min Rain = 0
KMC1 131949Z 21009KT 16/M03 A3008 RMK A01 T01641028  RH  027%=      5-min Rain = 0
KMC1 131950Z 22008KT 16/M03 A3008 RMK A01 T01641027  RH  027%=      5-min Rain = 0
KMC1 131951Z 21008KT 17/M03 A3008 RMK A01 T01661025  RH  027%=      5-min Rain = 0
KMC1 131952Z 22006KT 17/M03 A3008 RMK A01 T01671027  RH  026%=      5-min Rain = 0
KMC1 131953Z 23009KT 17/M03 A3008 RMK A01 T01681025  RH  027%=      5-min Rain = 0
KMC1 131954Z 24011KT 17/M03 A3008 RMK A01 T01671034  RH  025%=      5-min Rain = 0
KMC1 131955Z 24006KT 16/M04 A3008 RMK A01 T01641035  RH  025%=      5-min Rain = 0
KMC1 131956Z 25006KT 17/M03 A3008 RMK A01 T01651030  RH  026%=      5-min Rain = 0
KMC1 131957Z 23007KT 17/M03 A3008 RMK A01 T01661028  RH  026%=      5-min Rain = 0
KMC1 131958Z 23007KT 17/M03 A3008 RMK A01 T01681028  RH  026%=      5-min Rain = 0
KMC1 131959Z 23009KT 17/M03 A3008 RMK A01 T01701026  RH  026%=      5-min Rain = 0
KMC1 132000Z 23009G14KT 17/M03 A3008 RMK A01 T01691033  RH  025%=      5-min Rain = 0
KMC1 132001Z 24007KT 17/M03 A3008 RMK A01 T01671033  RH  025%=      5-min Rain = 0
KMC1 132002Z 23004KT 17/M03 A3008 RMK A01 T01671029  RH  026%=      5-min Rain = 0
KMC1 132003Z 25002KT 17/M03 A3008 RMK A01 T01691029  RH  026%=      5-min Rain = 0
KMC1 132004Z 24006KT 17/M03 A3008 RMK A01 T01711025  RH  026%=      5-min Rain = 0
KMC1 132005Z 24008KT 17/M03 A3008 RMK A01 T01741025  RH  026%=      5-min Rain = 0
KMC1 132006Z 25008KT 17/M03 A3008 RMK A01 T01741026  RH  025%=      5-min Rain = 0
KMC1 132007Z 26009KT 17/M03 A3008 RMK A01 T01741030  RH  025%=      5-min Rain = 0
KMC1 132008Z 25011KT 17/M04 A3008 RMK A01 T01721035  RH  024%=      5-min Rain = 0
KMC1 132009Z 24009KT 17/M04 A3008 RMK A01 T01691035  RH  024%=      5-min Rain = 0
KMC1 132010Z 23008KT 17/M03 A3008 RMK A01 T01691032  RH  025%=      5-min Rain = 0
KMC1 132011Z 25010KT 17/M04 A3008 RMK A01 T01681036  RH  024%=      5-min Rain = 0
KMC1 132012Z 25008G13KT 17/M03 A3008 RMK A01 T01681034  RH  025%=      5-min Rain = 0
KMC1 132013Z 26009KT 17/M03 A3008 RMK A01 T01691034  RH  025%=      5-min Rain = 0
KMC1 132014Z 24008G14KT 17/M04 A3008 RMK A01 T01691036  RH  024%=      5-min Rain = 0
KMC1 132015Z 23005KT 17/M03 A3008 RMK A01 T01701033  RH  025%=      5-min Rain = 0
KMC1 132016Z 25006KT 17/M03 A3008 RMK A01 T01711033  RH  025%=      5-min Rain = 0
KMC1 132017Z 22009KT 17/M03 A3007 RMK A01 T01721033  RH  024%=      5-min Rain = 0
KMC1 132018Z 21010KT 17/M04 A3007 RMK A01 T01721035  RH  024%=      5-min Rain = 0
KMC1 132019Z 21008KT 17/M04 A3007 RMK A01 T01711035  RH  024%=      5-min Rain = 0
KMC1 132020Z 22008KT 17/M04 A3007 RMK A01 T01701036  RH  024%=      5-min Rain = 0
KMC1 132021Z 23005KT 17/M03 A3007 RMK A01 T01701028  RH  026%=      5-min Rain = 0
KMC1 132022Z 25006KT 17/M03 A3007 RMK A01 T01721030  RH  025%=      5-min Rain = 0
KMC1 132023Z 24007KT 17/M03 A3007 RMK A01 T01731027  RH  025%=      5-min Rain = 0
KMC1 132024Z 25011KT 17/M03 A3007 RMK A01 T01741031  RH  025%=      5-min Rain = 0
KMC1 132025Z 24008KT 17/M03 A3007 RMK A01 T01731032  RH  024%=      5-min Rain = 0
KMC1 132026Z 25007KT 17/M04 A3007 RMK A01 T01721035  RH  024%=      5-min Rain = 0
KMC1 132027Z 25009KT 17/M03 A3007 RMK A01 T01711034  RH  024%=      5-min Rain = 0
KMC1 132028Z 26008KT 17/M03 A3007 RMK A01 T01711034  RH  024%=      5-min Rain = 0
KMC1 132029Z 27010KT 17/M03 A3007 RMK A01 T01711030  RH  025%=      5-min Rain = 0
KMC1 132030Z 24007KT 17/M02 A3006 RMK A01 T01731024  RH  026%=      5-min Rain = 0
KMC1 132031Z 24006KT 18/M02 A3006 RMK A01 T01771020  RH  026%=      5-min Rain = 0
KMC1 132032Z 25006KT 18/M03 A3006 RMK A01 T01791026  RH  025%=      5-min Rain = 0
KMC1 132033Z 25005KT 18/M03 A3006 RMK A01 T01791030  RH  024%=      5-min Rain = 0
KMC1 132034Z 27011KT 18/M03 A3006 RMK A01 T01791032  RH  024%=      5-min Rain = 0
KMC1 132035Z 26010KT 18/M04 A3006 RMK A01 T01771036  RH  023%=      5-min Rain = 0
KMC1 132036Z 24008KT 18/M04 A3006 RMK A01 T01751036  RH  023%=      5-min Rain = 0
KMC1 132037Z 23006KT 18/M03 A3006 RMK A01 T01751030  RH  025%=      5-min Rain = 0
KMC1 132038Z 24007KT 18/M03 A3006 RMK A01 T01771027  RH  025%=      5-min Rain = 0
KMC1 132039Z 23009KT 18/M03 A3006 RMK A01 T01781029  RH  024%=      5-min Rain = 0
KMC1 132040Z 23008KT 18/M03 A3006 RMK A01 T01781027  RH  024%=      5-min Rain = 0
KMC1 132041Z 23009KT 18/M03 A3006 RMK A01 T01791032  RH  024%=      5-min Rain = 0
KMC1 132042Z 22009KT 18/M03 A3006 RMK A01 T01791029  RH  024%=      5-min Rain = 0
KMC1 132043Z 22009KT 18/M03 A3006 RMK A01 T01781031  RH  024%=      5-min Rain = 0
KMC1 132044Z 22008KT 18/M03 A3006 RMK A01 T01771032  RH  024%=      5-min Rain = 0
KMC1 132045Z 23006KT 18/M03 A3006 RMK A01 T01761032  RH  024%=      5-min Rain = 0
KMC1 132046Z 23012KT 18/M03 A3006 RMK A01 T01771030  RH  024%=      5-min Rain = 0
KMC1 132047Z 23008G13KT 18/M03 A3006 RMK A01 T01771033  RH  024%=      5-min Rain = 0
KMC1 132048Z 23009KT 18/M03 A3006 RMK A01 T01771034  RH  023%=      5-min Rain = 0
KMC1 132049Z 22008KT 18/M04 A3006 RMK A01 T01771040  RH  023%=      5-min Rain = 0
KMC1 132050Z 21010KT 18/M04 A3006 RMK A01 T01761040  RH  023%=      5-min Rain = 0
KMC1 132051Z 21008KT 18/M04 A3006 RMK A01 T01751037  RH  023%=      5-min Rain = 0
KMC1 132052Z 22007KT 18/M03 A3006 RMK A01 T01771032  RH  024%=      5-min Rain = 0
KMC1 132053Z 23008KT 18/M03 A3005 RMK A01 T01791034  RH  023%=      5-min Rain = 0
KMC1 132054Z 25007KT 18/M03 A3005 RMK A01 T01791033  RH  023%=      5-min Rain = 0
KMC1 132055Z 23006KT 18/M03 A3005 RMK A01 T01811031  RH  024%=      5-min Rain = 0
KMC1 132056Z 24007KT 18/M03 A3005 RMK A01 T01821031  RH  023%=      5-min Rain = 0
KMC1 132057Z 25007G14KT 18/M03 A3005 RMK A01 T01831031  RH  023%=      5-min Rain = 0
KMC1 132058Z 23009KT 18/M04 A3005 RMK A01 T01841038  RH  022%=      5-min Rain = 0
KMC1 132059Z 24009KT 18/M04 A3005 RMK A01 T01821038  RH  022%=      5-min Rain = 0
KMC1 132100Z 25009KT 18/M04 A3005 RMK A01 T01811038  RH  022%=      5-min Rain = 0
KMC1 132101Z 24008KT 18/M04 A3005 RMK A01 T01811038  RH  022%=      5-min Rain = 0
KMC1 132102Z 23011KT 18/M04 A3005 RMK A01 T01801041  RH  022%=      5-min Rain = 0
KMC1 132103Z 23010KT 18/M04 A3005 RMK A01 T01791041  RH  022%=      5-min Rain = 0
KMC1 132104Z 24009KT 18/M04 A3005 RMK A01 T01791039  RH  022%=      5-min Rain = 0
KMC1 132105Z 24009KT 18/M04 A3005 RMK A01 T01791035  RH  023%=      5-min Rain = 0
KMC1 132106Z 24007KT 18/M04 A3005 RMK A01 T01801037  RH  023%=      5-min Rain = 0
KMC1 132107Z 23008G14KT 18/M04 A3005 RMK A01 T01801038  RH  022%=      5-min Rain = 0
KMC1 132108Z 24012KT 18/M04 A3005 RMK A01 T01801044  RH  021%=      5-min Rain = 0
KMC1 132109Z 23008KT 18/M05 A3005 RMK A01 T01781046  RH  021%=      5-min Rain = 0
KMC1 132110Z 22009KT 18/M05 A3004 RMK A01 T01771045  RH  022%=      5-min Rain = 0
KMC1 132111Z 22008KT 18/M04 A3004 RMK A01 T01761042  RH  022%=      5-min Rain = 0
KMC1 132112Z 24007KT 18/M04 A3004 RMK A01 T01771041  RH  022%=      5-min Rain = 0
KMC1 132113Z 24007KT 18/M04 A3004 RMK A01 T01781039  RH  023%=      5-min Rain = 0
KMC1 132114Z 24008KT 18/M04 A3004 RMK A01 T01791038  RH  023%=      5-min Rain = 0
KMC1 132115Z 24007KT 18/M04 A3004 RMK A01 T01801038  RH  022%=      5-min Rain = 0
KMC1 132116Z 24008KT 18/M03 A3004 RMK A01 T01801034  RH  023%=      5-min Rain = 0
KMC1 132117Z 23005KT 18/M04 A3004 RMK A01 T01811037  RH  022%=      5-min Rain = 0
KMC1 132118Z 22007KT 18/M03 A3004 RMK A01 T01811034  RH  023%=      5-min Rain = 0
KMC1 132119Z 24009G14KT 18/M04 A3004 RMK A01 T01821035  RH  023%=      5-min Rain = 0
KMC1 132120Z 23009G16KT 18/M04 A3004 RMK A01 T01821040  RH  022%=      5-min Rain = 0
KMC1 132121Z 20008KT 18/M04 A3004 RMK A01 T01811036  RH  022%=      5-min Rain = 0
KMC1 132122Z 21010KT 18/M04 A3004 RMK A01 T01821041  RH  022%=      5-min Rain = 0
KMC1 132123Z 21008KT 18/M04 A3004 RMK A01 T01821042  RH  021%=      5-min Rain = 0
KMC1 132124Z 23007KT 18/M04 A3004 RMK A01 T01811038  RH  022%=      5-min Rain = 0
KMC1 132125Z 24009KT 18/M04 A3004 RMK A01 T01811040  RH  022%=      5-min Rain = 0
KMC1 132126Z 24007G12KT 18/M04 A3004 RMK A01 T01801040  RH  022%=      5-min Rain = 0
KMC1 132127Z 22006KT 18/M03 A3004 RMK A01 T01801032  RH  023%=      5-min Rain = 0
KMC1 132128Z 22008G13KT 18/M03 A3004 RMK A01 T01831029  RH  023%=      5-min Rain = 0
KMC1 132129Z 22007G12KT 18/M04 A3004 RMK A01 T01831035  RH  022%=      5-min Rain = 0
KMC1 132130Z 20005KT 18/M03 A3004 RMK A01 T01831033  RH  023%=      5-min Rain = 0
KMC1 132131Z 22006KT 18/M03 A3004 RMK A01 T01831034  RH  023%=      5-min Rain = 0
KMC1 132132Z 22005KT 18/M03 A3004 RMK A01 T01831031  RH  023%=      5-min Rain = 0
KMC1 132133Z 21009KT 19/M03 A3004 RMK A01 T01851031  RH  023%=      5-min Rain = 0
KMC1 132134Z 21009KT 19/M04 A3004 RMK A01 T01851036  RH  022%=      5-min Rain = 0
KMC1 132135Z 21007KT 18/M04 A3004 RMK A01 T01841040  RH  022%=      5-min Rain = 0
KMC1 132136Z 23008G13KT 18/M03 A3004 RMK A01 T01831034  RH  023%=      5-min Rain = 0
KMC1 132137Z 23008KT 18/M04 A3004 RMK A01 T01841039  RH  022%=      5-min Rain = 0
KMC1 132138Z 24008KT 18/M04 A3003 RMK A01 T01831039  RH  022%=      5-min Rain = 0
KMC1 132139Z 23009G14KT 18/M04 A3003 RMK A01 T01831037  RH  022%=      5-min Rain = 0
KMC1 132140Z 24009KT 18/M04 A3003 RMK A01 T01821040  RH  022%=      5-min Rain = 0
KMC1 132141Z 23012KT 18/M04 A3003 RMK A01 T01811038  RH  022%=      5-min Rain = 0
KMC1 132142Z 23010KT 18/M04 A3003 RMK A01 T01801038  RH  022%=      5-min Rain = 0
KMC1 132143Z 22005KT 18/M04 A3003 RMK A01 T01801039  RH  022%=      5-min Rain = 0
KMC1 132144Z 22010KT 18/M04 A3003 RMK A01 T01801037  RH  023%=      5-min Rain = 0
KMC1 132145Z 23010KT 18/M04 A3003 RMK A01 T01801038  RH  022%=      5-min Rain = 0
KMC1 132146Z 22010KT 18/M04 A3003 RMK A01 T01791039  RH  022%=      5-min Rain = 0
KMC1 132147Z 22009G14KT 18/M04 A3003 RMK A01 T01771040  RH  023%=      5-min Rain = 0
KMC1 132148Z 22008KT 18/M04 A3003 RMK A01 T01761037  RH  023%=      5-min Rain = 0
KMC1 132149Z 22008KT 18/M04 A3003 RMK A01 T01761040  RH  023%=      5-min Rain = 0
KMC1 132150Z 24008KT 18/M04 A3003 RMK A01 T01771038  RH  023%=      5-min Rain = 0
KMC1 132151Z 23009G14KT 18/M04 A3003 RMK A01 T01761038  RH  023%=      5-min Rain = 0
KMC1 132152Z 23006KT 18/M04 A3003 RMK A01 T01771036  RH  023%=      5-min Rain = 0
KMC1 132153Z 22008KT 18/M04 A3003 RMK A01 T01771039  RH  023%=      5-min Rain = 0
KMC1 132154Z 23009KT 18/M04 A3003 RMK A01 T01761040  RH  023%=      5-min Rain = 0
KMC1 132155Z 24010KT 18/M04 A3003 RMK A01 T01761040  RH  023%=      5-min Rain = 0
KMC1 132156Z 24010KT 18/M04 A3003 RMK A01 T01751039  RH  023%=      5-min Rain = 0
KMC1 132157Z 24009KT 18/M04 A3003 RMK A01 T01751040  RH  023%=      5-min Rain = 0
KMC1 132158Z 23008KT 18/M04 A3003 RMK A01 T01751038  RH  023%=      5-min Rain = 0
KMC1 132159Z 22006KT 18/M04 A3003 RMK A01 T01761036  RH  023%=      5-min Rain = 0
KMC1 132200Z 22007KT 18/M04 A3003 RMK A01 T01781035  RH  023%=      5-min Rain = 0
KMC1 132201Z 22008KT 18/M03 A3003 RMK A01 T01791034  RH  023%=      5-min Rain = 0
KMC1 132202Z 23009KT 18/M04 A3003 RMK A01 T01791038  RH  022%=      5-min Rain = 0
KMC1 132203Z 22007KT 18/M04 A3003 RMK A01 T01791035  RH  023%=      5-min Rain = 0
KMC1 132204Z 22010KT 18/M03 A3003 RMK A01 T01801034  RH  023%=      5-min Rain = 0
KMC1 132205Z 22010KT 18/M04 A3003 RMK A01 T01801037  RH  023%=      5-min Rain = 0
KMC1 132206Z 23010KT 18/M04 A3003 RMK A01 T01791039  RH  022%=      5-min Rain = 0
KMC1 132207Z 23008G13KT 18/M04 A3003 RMK A01 T01781040  RH  022%=      5-min Rain = 0
KMC1 132208Z 21010G15KT 18/M04 A3003 RMK A01 T01781040  RH  022%=      5-min Rain = 0
KMC1 132209Z 21009KT 18/M04 A3003 RMK A01 T01781042  RH  022%=      5-min Rain = 0
KMC1 132210Z 20010KT 18/M04 A3003 RMK A01 T01781041  RH  022%=      5-min Rain = 0
KMC1 132211Z 21008KT 18/M04 A3003 RMK A01 T01781041  RH  022%=      5-min Rain = 0
KMC1 132212Z 23008KT 18/M04 A3003 RMK A01 T01781040  RH  022%=      5-min Rain = 0
KMC1 132213Z 23009KT 18/M04 A3003 RMK A01 T01791038  RH  023%=      5-min Rain = 0
KMC1 132214Z 22008KT 18/M04 A3003 RMK A01 T01781041  RH  022%=      5-min Rain = 0
KMC1 132215Z 23007KT 18/M04 A3003 RMK A01 T01781040  RH  022%=      5-min Rain = 0
KMC1 132216Z 22007KT 18/M04 A3003 RMK A01 T01781037  RH  023%=      5-min Rain = 0
KMC1 132217Z 21009KT 18/M04 A3003 RMK A01 T01781039  RH  022%=      5-min Rain = 0
KMC1 132218Z 22010KT 18/M04 A3003 RMK A01 T01791039  RH  022%=      5-min Rain = 0
KMC1 132219Z 21009KT 18/M04 A3003 RMK A01 T01781041  RH  022%=      5-min Rain = 0
KMC1 132220Z 22006KT 18/M04 A3003 RMK A01 T01781039  RH  023%=      5-min Rain = 0
KMC1 132221Z 23006KT 18/M04 A3003 RMK A01 T01781035  RH  023%=      5-min Rain = 0
KMC1 132222Z 23009G15KT 18/M04 A3003 RMK A01 T01791037  RH  023%=      5-min Rain = 0
KMC1 132223Z 23008G13KT 18/M04 A3003 RMK A01 T01781038  RH  023%=      5-min Rain = 0
KMC1 132224Z 23009KT 18/M04 A3003 RMK A01 T01771038  RH  023%=      5-min Rain = 0
KMC1 132225Z 22007KT 18/M04 A3003 RMK A01 T01771038  RH  023%=      5-min Rain = 0
KMC1 132226Z 21011KT 18/M04 A3003 RMK A01 T01771038  RH  023%=      5-min Rain = 0
KMC1 132227Z 21009KT 18/M04 A3003 RMK A01 T01761040  RH  023%=      5-min Rain = 0
KMC1 132228Z 21010KT 18/M04 A3003 RMK A01 T01751039  RH  023%=      5-min Rain = 0
KMC1 132229Z 21011KT 17/M04 A3003 RMK A01 T01741041  RH  023%=      5-min Rain = 0
KMC1 132230Z 21007KT 17/M04 A3003 RMK A01 T01741037  RH  024%=      5-min Rain = 0
KMC1 132231Z 20006KT 17/M03 A3003 RMK A01 T01741034  RH  024%=      5-min Rain = 0
KMC1 132232Z 20011KT 18/M04 A3002 RMK A01 T01751035  RH  024%=      5-min Rain = 0
KMC1 132233Z 21009KT 18/M04 A3003 RMK A01 T01751036  RH  023%=      5-min Rain = 0
KMC1 132234Z 20010KT 17/M04 A3002 RMK A01 T01741038  RH  023%=      5-min Rain = 0
KMC1 132235Z 22011KT 17/M04 A3003 RMK A01 T01741038  RH  023%=      5-min Rain = 0
KMC1 132236Z 22009KT 17/M04 A3003 RMK A01 T01731037  RH  024%=      5-min Rain = 0
KMC1 132237Z 23008KT 17/M04 A3003 RMK A01 T01731036  RH  024%=      5-min Rain = 0
KMC1 132238Z 22010KT 17/M04 A3003 RMK A01 T01731035  RH  024%=      5-min Rain = 0
KMC1 132239Z 22009KT 17/M04 A3003 RMK A01 T01731038  RH  023%=      5-min Rain = 0
KMC1 132240Z 22008KT 17/M04 A3003 RMK A01 T01731038  RH  023%=      5-min Rain = 0
KMC1 132241Z 22007KT 17/M04 A3003 RMK A01 T01731035  RH  024%=      5-min Rain = 0
KMC1 132242Z 23005KT 17/M03 A3003 RMK A01 T01731032  RH  025%=      5-min Rain = 0
KMC1 132243Z 23005KT 17/M03 A3003 RMK A01 T01731031  RH  025%=      5-min Rain = 0
KMC1 132244Z 24007KT 17/M03 A3003 RMK A01 T01741032  RH  024%=      5-min Rain = 0
KMC1 132245Z 24006KT 17/M03 A3003 RMK A01 T01741034  RH  024%=      5-min Rain = 0
KMC1 132246Z 23005KT 17/M03 A3003 RMK A01 T01741033  RH  024%=      5-min Rain = 0
KMC1 132247Z 23006KT 17/M03 A3003 RMK A01 T01741032  RH  024%=      5-min Rain = 0
KMC1 132248Z 22005KT 17/M03 A3003 RMK A01 T01741031  RH  024%=      5-min Rain = 0
KMC1 132249Z 22005G11KT 17/M03 A3003 RMK A01 T01741028  RH  025%=      5-min Rain = 0
KMC1 132250Z 23009KT 17/M03 A3003 RMK A01 T01741029  RH  025%=      5-min Rain = 0
KMC1 132251Z 22008KT 17/M03 A3003 RMK A01 T01731030  RH  025%=      5-min Rain = 0
KMC1 132252Z 21008KT 17/M03 A3002 RMK A01 T01721030  RH  025%=      5-min Rain = 0
KMC1 132253Z 23007KT 17/M03 A3002 RMK A01 T01711028  RH  026%=      5-min Rain = 0
KMC1 132254Z 23007KT 17/M03 A3002 RMK A01 T01711027  RH  026%=      5-min Rain = 0
KMC1 132255Z 23007KT 17/M03 A3002 RMK A01 T01711029  RH  025%=      5-min Rain = 0
KMC1 132256Z 22006KT 17/M03 A3002 RMK A01 T01701028  RH  026%=      5-min Rain = 0
KMC1 132257Z 21007KT 17/M03 A3002 RMK A01 T01701026  RH  026%=      5-min Rain = 0
KMC1 132258Z 20007KT 17/M03 A3002 RMK A01 T01701026  RH  026%=      5-min Rain = 0
KMC1 132259Z 21007KT 17/M03 A3002 RMK A01 T01701026  RH  026%=      5-min Rain = 0
KMC1 132300Z 22007KT 17/M02 A3002 RMK A01 T01701023  RH  027%=      5-min Rain = 0
KMC1 132301Z 22006KT 17/M02 A3002 RMK A01 T01691022  RH  027%=      5-min Rain = 0
KMC1 132302Z 22006KT 17/M02 A3002 RMK A01 T01701021  RH  027%=      5-min Rain = 0
KMC1 132303Z 21008KT 17/M02 A3002 RMK A01 T01691021  RH  027%=      5-min Rain = 0
KMC1 132304Z 21008KT 17/M02 A3002 RMK A01 T01691022  RH  027%=      5-min Rain = 0
KMC1 132305Z 20010KT 17/M02 A3002 RMK A01 T01681023  RH  027%=      5-min Rain = 0
KMC1 132306Z 21010KT 17/M02 A3002 RMK A01 T01681024  RH  027%=      5-min Rain = 0
KMC1 132307Z 22010KT 17/M03 A3002 RMK A01 T01671026  RH  027%=      5-min Rain = 0
KMC1 132308Z 21007KT 17/M03 A3002 RMK A01 T01661025  RH  027%=      5-min Rain = 0
KMC1 132309Z 21011KT 17/M03 A3002 RMK A01 T01651025  RH  027%=      5-min Rain = 0
KMC1 132310Z 21008KT 17/M03 A3001 RMK A01 T01651027  RH  027%=      5-min Rain = 0
KMC1 132311Z 20008KT 17/M03 A3001 RMK A01 T01651025  RH  027%=      5-min Rain = 0
KMC1 132312Z 21010KT 17/M03 A3001 RMK A01 T01651025  RH  027%=      5-min Rain = 0
KMC1 132313Z 20010KT 16/M03 A3001 RMK A01 T01641027  RH  027%=      5-min Rain = 0
KMC1 132314Z 21008KT 16/M03 A3001 RMK A01 T01631026  RH  027%=      5-min Rain = 0
KMC1 132315Z 21005KT 16/M02 A3001 RMK A01 T01631024  RH  028%=      5-min Rain = 0
KMC1 132316Z 21005KT 16/M02 A3001 RMK A01 T01631023  RH  028%=      5-min Rain = 0
KMC1 132317Z 22006KT 16/M02 A3002 RMK A01 T01621022  RH  028%=      5-min Rain = 0
KMC1 132318Z 22007KT 16/M02 A3002 RMK A01 T01631022  RH  028%=      5-min Rain = 0
KMC1 132319Z 20006KT 16/M02 A3002 RMK A01 T01631021  RH  028%=      5-min Rain = 0
KMC1 132320Z 21005KT 16/M02 A3002 RMK A01 T01621020  RH  029%=      5-min Rain = 0
KMC1 132321Z 21005KT 16/M02 A3002 RMK A01 T01621021  RH  029%=      5-min Rain = 0
KMC1 132322Z 22006KT 16/M02 A3002 RMK A01 T01611020  RH  029%=      5-min Rain = 0
KMC1 132323Z 22006KT 16/M02 A3002 RMK A01 T01611021  RH  029%=      5-min Rain = 0
KMC1 132324Z 21007KT 16/M02 A3002 RMK A01 T01611020  RH  029%=      5-min Rain = 0
KMC1 132325Z 21006KT 16/M02 A3002 RMK A01 T01601019  RH  029%=      5-min Rain = 0
KMC1 132326Z 22006KT 16/M02 A3002 RMK A01 T01601019  RH  029%=      5-min Rain = 0
KMC1 132327Z 21006KT 16/M02 A3002 RMK A01 T01591019  RH  029%=      5-min Rain = 0
KMC1 132328Z 22006KT 16/M02 A3002 RMK A01 T01591020  RH  029%=      5-min Rain = 0
KMC1 132329Z 22005KT 16/M02 A3002 RMK A01 T01581019  RH  030%=      5-min Rain = 0
KMC1 132330Z 22005KT 16/M02 A3002 RMK A01 T01581018  RH  030%=      5-min Rain = 0
KMC1 132331Z 22006KT 16/M02 A3002 RMK A01 T01571019  RH  030%=      5-min Rain = 0
KMC1 132332Z 22006KT 16/M02 A3002 RMK A01 T01571020  RH  030%=      5-min Rain = 0
KMC1 132333Z 22005KT 16/M02 A3002 RMK A01 T01561020  RH  030%=      5-min Rain = 0
KMC1 132334Z 22007KT 16/M02 A3002 RMK A01 T01561020  RH  030%=      5-min Rain = 0
KMC1 132335Z 22006KT 16/M02 A3002 RMK A01 T01551021  RH  030%=      5-min Rain = 0
KMC1 132336Z 22006KT 16/M02 A3002 RMK A01 T01551021  RH  030%=      5-min Rain = 0
KMC1 132337Z 22006KT 16/M02 A3002 RMK A01 T01551021  RH  030%=      5-min Rain = 0
KMC1 132338Z 22004KT 15/M02 A3002 RMK A01 T01541020  RH  030%=      5-min Rain = 0
KMC1 132339Z 22006KT 15/M02 A3002 RMK A01 T01541019  RH  030%=      5-min Rain = 0
KMC1 132340Z 22005KT 15/M02 A3002 RMK A01 T01531020  RH  030%=      5-min Rain = 0
KMC1 132341Z 22004KT 15/M02 A3002 RMK A01 T01521019  RH  031%=      5-min Rain = 0
KMC1 132342Z 22006KT 15/M02 A3002 RMK A01 T01501020  RH  031%=      5-min Rain = 0
KMC1 132343Z 23005KT 15/M02 A3002 RMK A01 T01491020  RH  031%=      5-min Rain = 0
KMC1 132344Z 22006KT 15/M02 A3002 RMK A01 T01481020  RH  031%=      5-min Rain = 0
KMC1 132345Z 22006KT 15/M02 A3002 RMK A01 T01471021  RH  031%=      5-min Rain = 0
KMC1 132346Z 22006KT 15/M02 A3002 RMK A01 T01471020  RH  032%=      5-min Rain = 0
KMC1 132347Z 22005KT 15/M02 A3002 RMK A01 T01461020  RH  032%=      5-min Rain = 0
KMC1 132348Z 22004KT 15/M02 A3002 RMK A01 T01451020  RH  032%=      5-min Rain = 0
KMC1 132349Z 23004KT 14/M02 A3002 RMK A01 T01441019  RH  032%=      5-min Rain = 0
KMC1 132350Z 22005KT 14/M02 A3002 RMK A01 T01431019  RH  032%=      5-min Rain = 0
KMC1 132351Z 22005KT 14/M02 A3002 RMK A01 T01431019  RH  033%=      5-min Rain = 0
KMC1 132352Z 21005KT 14/M02 A3002 RMK A01 T01421019  RH  033%=      5-min Rain = 0
KMC1 132353Z 22005KT 14/M02 A3002 RMK A01 T01411020  RH  033%=      5-min Rain = 0
KMC1 132354Z 22005KT 14/M02 A3002 RMK A01 T01401019  RH  033%=      5-min Rain = 0
KMC1 132355Z 21005KT 14/M02 A3002 RMK A01 T01391019  RH  033%=      5-min Rain = 0
KMC1 132356Z 22005KT 14/M02 A3002 RMK A01 T01381020  RH  033%=      5-min Rain = 0
KMC1 132357Z 22006KT 14/M02 A3001 RMK A01 T01381019  RH  034%=      5-min Rain = 0
KMC1 132358Z 22006KT 14/M02 A3001 RMK A01 T01371019  RH  034%=      5-min Rain = 0
KMC1 132359Z 22006KT 14/M02 A3001 RMK A01 T01361019  RH  034%=      5-min Rain = 0
KMC1 140000Z 22006KT 14/M02 A3001 RMK A01 T01351019  RH  035%=      5-min Rain = 0
KMC1 140001Z 21007KT 13/M02 A3001 RMK A01 T01341019  RH  035%=      5-min Rain = 0
KMC1 140002Z 21007KT 13/M02 A3001 RMK A01 T01331019  RH  035%=      5-min Rain = 0
KMC1 140003Z 21007KT 13/M02 A3001 RMK A01 T01321019  RH  035%=      5-min Rain = 0
KMC1 140004Z 22007KT 13/M02 A3001 RMK A01 T01321019  RH  035%=      5-min Rain = 0
KMC1 140005Z 22007KT 13/M02 A3001 RMK A01 T01321019  RH  035%=      5-min Rain = 0
KMC1 140006Z 22006KT 13/M02 A3001 RMK A01 T01321018  RH  035%=      5-min Rain = 0
KMC1 140007Z 22006KT 13/M02 A3001 RMK A01 T01301018  RH  036%=      5-min Rain = 0
KMC1 140008Z 22005KT 13/M02 A3001 RMK A01 T01291018  RH  036%=      5-min Rain = 0
KMC1 140009Z 21007KT 13/M02 A3001 RMK A01 T01281019  RH  036%=      5-min Rain = 0
KMC1 140010Z 22007KT 13/M02 A3001 RMK A01 T01291019  RH  036%=      5-min Rain = 0
KMC1 140011Z 21008KT 13/M02 A3001 RMK A01 T01281018  RH  036%=      5-min Rain = 0
KMC1 140012Z 21007KT 13/M02 A3001 RMK A01 T01281018  RH  036%=      5-min Rain = 0
KMC1 140013Z 21007KT 13/M02 A3001 RMK A01 T01271019  RH  036%=      5-min Rain = 0
KMC1 140014Z 21006KT 13/M02 A3001 RMK A01 T01271019  RH  036%=      5-min Rain = 0
KMC1 140015Z 21006KT 13/M02 A3001 RMK A01 T01271018  RH  036%=      5-min Rain = 0
KMC1 140016Z 21007KT 13/M02 A30 RMK A01 T01271019  RH  036%=      5-min Rain = 0
KMC1 140017Z 20007KT 13/M02 A30 RMK A01 T01271019  RH  036%=      5-min Rain = 0
KMC1 140018Z 20007KT 13/M02 A30 RMK A01 T01271019  RH  036%=      5-min Rain = 0
KMC1 140019Z 20006KT 13/M02 A30 RMK A01 T01261018  RH  037%=      5-min Rain = 0
KMC1 140020Z 20006KT 13/M02 A30 RMK A01 T01251019  RH  037%=      5-min Rain = 0
KMC1 140021Z 20006KT 12/M02 A30 RMK A01 T01241019  RH  037%=      5-min Rain = 0
KMC1 140022Z 20005KT 12/M02 A30 RMK A01 T01231018  RH  037%=      5-min Rain = 0
KMC1 140023Z 19005KT 12/M02 A30 RMK A01 T01211019  RH  038%=      5-min Rain = 0
KMC1 140024Z 19006KT 12/M02 A30 RMK A01 T01201019  RH  038%=      5-min Rain = 0
KMC1 140025Z 19006KT 12/M02 A30 RMK A01 T01191019  RH  038%=      5-min Rain = 0
KMC1 140026Z 19006KT 12/M02 A30 RMK A01 T01171019  RH  039%=      5-min Rain = 0
KMC1 140027Z 19006KT 12/M02 A30 RMK A01 T01161019  RH  039%=      5-min Rain = 0
KMC1 140028Z 19007KT 12/M02 A30 RMK A01 T01151019  RH  039%=      5-min Rain = 0
KMC1 140029Z 19006KT 11/M02 A2999 RMK A01 T01141019  RH  039%=      5-min Rain = 0
KMC1 140030Z 19007KT 11/M02 A2999 RMK A01 T01141019  RH  040%=      5-min Rain = 0
KMC1 140031Z 19007KT 11/M02 A2999 RMK A01 T01141018  RH  040%=      5-min Rain = 0
KMC1 140032Z 19007KT 11/M02 A2999 RMK A01 T01131018  RH  040%=      5-min Rain = 0
KMC1 140033Z 19007KT 11/M02 A2999 RMK A01 T01121018  RH  040%=      5-min Rain = 0
KMC1 140034Z 19007KT 11/M02 A2999 RMK A01 T01121018  RH  040%=      5-min Rain = 0
KMC1 140035Z 19007KT 11/M02 A2999 RMK A01 T01131018  RH  040%=      5-min Rain = 0
KMC1 140036Z 18007KT 11/M02 A2999 RMK A01 T01121017  RH  041%=      5-min Rain = 0
KMC1 140037Z 18006KT 11/M02 A2999 RMK A01 T01121016  RH  041%=      5-min Rain = 0
KMC1 140038Z 18006KT 11/M02 A2999 RMK A01 T01111016  RH  041%=      5-min Rain = 0
KMC1 140039Z 19006KT 11/M02 A2999 RMK A01 T01101015  RH  042%=      5-min Rain = 0
KMC1 140040Z 18006KT 11/M02 A2999 RMK A01 T01101015  RH  042%=      5-min Rain = 0
KMC1 140041Z 19006KT 11/M02 A2999 RMK A01 T01091015  RH  042%=      5-min Rain = 0
KMC1 140042Z 18007KT 11/M01 A2999 RMK A01 T01091014  RH  042%=      5-min Rain = 0
KMC1 140043Z 19007KT 11/M01 A2999 RMK A01 T01091013  RH  042%=      5-min Rain = 0
KMC1 140044Z 19007KT 11/M01 A2999 RMK A01 T01091013  RH  043%=      5-min Rain = 0
KMC1 140045Z 18007KT 11/M01 A2999 RMK A01 T01081013  RH  043%=      5-min Rain = 0
KMC1 140046Z 19007KT 11/M01 A2999 RMK A01 T01081012  RH  043%=      5-min Rain = 0
KMC1 140047Z 19006KT 11/M01 A2999 RMK A01 T01081012  RH  043%=      5-min Rain = 0
KMC1 140048Z 19006KT 11/M01 A2999 RMK A01 T01071012  RH  043%=      5-min Rain = 0
KMC1 140049Z 19006KT 11/M01 A2999 RMK A01 T01071012  RH  044%=      5-min Rain = 0
KMC1 140050Z 19005KT 11/M01 A2999 RMK A01 T01061012  RH  044%=      5-min Rain = 0
KMC1 140051Z 19006KT 11/M01 A2999 RMK A01 T01061011  RH  044%=      5-min Rain = 0
KMC1 140052Z 19005KT 11/M01 A2999 RMK A01 T01051011  RH  044%=      5-min Rain = 0
KMC1 140053Z 19005KT 10/M01 A2999 RMK A01 T01041011  RH  045%=      5-min Rain = 0
KMC1 140054Z 19005KT 10/M01 A2999 RMK A01 T01031011  RH  045%=      5-min Rain = 0
KMC1 140055Z 19005KT 10/M01 A2999 RMK A01 T01021011  RH  045%=      5-min Rain = 0
KMC1 140056Z 19005KT 10/M01 A2999 RMK A01 T01011011  RH  046%=      5-min Rain = 0
KMC1 140057Z 19005KT 10/M01 A2999 RMK A01 T01001010  RH  046%=      5-min Rain = 0
KMC1 140058Z 19006KT 10/M01 A2999 RMK A01 T01001010  RH  046%=      5-min Rain = 0
KMC1 140059Z 19005KT 10/M01 A2999 RMK A01 T01001010  RH  046%=      5-min Rain = 0
KMC1 140100Z 19005KT 10/M01 A2999 RMK A01 T00991010  RH  047%=      5-min Rain = 0
KMC1 140101Z 19005KT 10/M01 A2999 RMK A01 T00991010  RH  047%=      5-min Rain = 0
KMC1 140102Z 19005KT 10/M01 A2999 RMK A01 T00981010  RH  047%=      5-min Rain = 0
KMC1 140103Z 19006KT 10/M01 A2999 RMK A01 T00971010  RH  047%=      5-min Rain = 0
KMC1 140104Z 19006KT 10/M01 A2999 RMK A01 T00971009  RH  047%=      5-min Rain = 0
KMC1 140105Z 18007KT 10/M01 A2999 RMK A01 T00971009  RH  047%=      5-min Rain = 0
KMC1 140106Z 18006KT 10/M01 A2999 RMK A01 T00971008  RH  048%=      5-min Rain = 0
KMC1 140107Z 18007KT 10/M01 A2999 RMK A01 T00971008  RH  048%=      5-min Rain = 0
KMC1 140108Z 19007KT 10/M01 A2999 RMK A01 T00961008  RH  048%=      5-min Rain = 0
KMC1 140109Z 19006KT 10/M01 A2999 RMK A01 T00961008  RH  048%=      5-min Rain = 0
KMC1 140110Z 18006KT 10/M01 A2999 RMK A01 T00961008  RH  048%=      5-min Rain = 0
KMC1 140111Z 18005KT 10/M01 A2999 RMK A01 T00961008  RH  048%=      5-min Rain = 0
KMC1 140112Z 18006KT 10/M01 A2999 RMK A01 T00961008  RH  048%=      5-min Rain = 0
KMC1 140113Z 18006KT 10/M01 A2999 RMK A01 T00951008  RH  049%=      5-min Rain = 0
KMC1 140114Z 18006KT 09/M01 A2999 RMK A01 T00941008  RH  049%=      5-min Rain = 0
KMC1 140115Z 18006KT 09/M01 A2999 RMK A01 T00941008  RH  049%=      5-min Rain = 0
KMC1 140116Z 18006KT 09/M01 A2998 RMK A01 T00941008  RH  049%=      5-min Rain = 0
KMC1 140117Z 18006KT 09/M01 A2998 RMK A01 T00941008  RH  049%=      5-min Rain = 0
KMC1 140118Z 18006KT 09/M01 A2998 RMK A01 T00931008  RH  049%=      5-min Rain = 0
KMC1 140119Z 18007KT 09/M01 A2998 RMK A01 T00931008  RH  049%=      5-min Rain = 0
KMC1 140120Z 18007KT 09/M01 A2998 RMK A01 T00931008  RH  049%=      5-min Rain = 0
KMC1 140121Z 18007KT 09/M01 A2998 RMK A01 T00931008  RH  049%=      5-min Rain = 0
KMC1 140122Z 18006KT 09/M01 A2998 RMK A01 T00931008  RH  049%=      5-min Rain = 0
KMC1 140123Z 19006KT 09/M01 A2998 RMK A01 T00931008  RH  049%=      5-min Rain = 0
KMC1 140124Z 19007KT 09/M01 A2998 RMK A01 T00921008  RH  049%=      5-min Rain = 0
KMC1 140125Z 19006KT 09/M01 A2998 RMK A01 T00921008  RH  049%=      5-min Rain = 0
KMC1 140126Z 19006KT 09/M01 A2998 RMK A01 T00931009  RH  049%=      5-min Rain = 0
KMC1 140127Z 19006KT 09/M01 A2998 RMK A01 T00931008  RH  049%=      5-min Rain = 0
KMC1 140128Z 20006KT 09/M01 A2998 RMK A01 T00941008  RH  049%=      5-min Rain = 0
KMC1 140129Z 19006KT 09/M01 A2998 RMK A01 T00941009  RH  049%=      5-min Rain = 0
KMC1 140130Z 20006KT 09/M01 A2998 RMK A01 T00941008  RH  049%=      5-min Rain = 0
KMC1 140131Z 20005KT 09/M01 A2998 RMK A01 T00931009  RH  049%=      5-min Rain = 0
KMC1 140132Z 19004KT 09/M01 A2999 RMK A01 T00931008  RH  049%=      5-min Rain = 0
KMC1 140133Z 20005KT 09/M01 A2999 RMK A01 T00921009  RH  049%=      5-min Rain = 0
KMC1 140134Z 19005KT 09/M01 A2999 RMK A01 T00911009  RH  050%=      5-min Rain = 0
KMC1 140135Z 20005KT 09/M01 A2999 RMK A01 T00911009  RH  050%=      5-min Rain = 0
KMC1 140136Z 20005KT 09/M01 A2999 RMK A01 T00901009  RH  050%=      5-min Rain = 0
KMC1 140137Z 20004KT 09/M01 A2999 RMK A01 T00901009  RH  050%=      5-min Rain = 0
KMC1 140138Z 20005KT 09/M01 A30 RMK A01 T00901009  RH  050%=      5-min Rain = 0
KMC1 140139Z 20004KT 09/M01 A30 RMK A01 T00891009  RH  050%=      5-min Rain = 0
KMC1 140140Z 20004KT 09/M01 A30 RMK A01 T00891009  RH  050%=      5-min Rain = 0
KMC1 140141Z 21005KT 09/M01 A30 RMK A01 T00881009  RH  050%=      5-min Rain = 0
KMC1 140142Z 20005KT 09/M01 A30 RMK A01 T00871010  RH  051%=      5-min Rain = 0
KMC1 140143Z 21005KT 09/M01 A30 RMK A01 T00861009  RH  051%=      5-min Rain = 0
KMC1 140144Z 21005KT 09/M01 A30 RMK A01 T00851010  RH  051%=      5-min Rain = 0
KMC1 140145Z 21005KT 08/M01 A30 RMK A01 T00841010  RH  052%=      5-min Rain = 0
KMC1 140146Z 21006KT 08/M01 A30 RMK A01 T00831010  RH  052%=      5-min Rain = 0
KMC1 140147Z 22006KT 08/M01 A30 RMK A01 T00821010  RH  052%=      5-min Rain = 0
KMC1 140148Z 22006KT 08/M01 A2999 RMK A01 T00811010  RH  053%=      5-min Rain = 0
KMC1 140149Z 22006KT 08/M01 A2999 RMK A01 T00801010  RH  053%=      5-min Rain = 0
KMC1 140150Z 22006KT 08/M01 A2999 RMK A01 T00791010  RH  053%=      5-min Rain = 0
KMC1 140151Z 21007KT 08/M01 A2999 RMK A01 T00791010  RH  053%=      5-min Rain = 0
KMC1 140152Z 21007KT 08/M01 A2999 RMK A01 T00791010  RH  054%=      5-min Rain = 0
KMC1 140153Z 21006KT 08/M01 A2999 RMK A01 T00781010  RH  054%=      5-min Rain = 0
KMC1 140154Z 21006KT 08/M01 A2999 RMK A01 T00781010  RH  054%=      5-min Rain = 0
KMC1 140155Z 21006KT 08/M01 A2999 RMK A01 T00791010  RH  053%=      5-min Rain = 0
KMC1 140156Z 20006KT 08/M01 A2998 RMK A01 T00791010  RH  053%=      5-min Rain = 0
KMC1 140157Z 20005KT 08/M01 A2998 RMK A01 T00791010  RH  053%=      5-min Rain = 0
KMC1 140158Z 19005KT 08/M01 A2998 RMK A01 T00791010  RH  053%=      5-min Rain = 0
KMC1 140159Z 20006KT 08/M01 A2998 RMK A01 T00781010  RH  053%=      5-min Rain = 0
KMC1 140200Z 19005KT 08/M01 A2998 RMK A01 T00791010  RH  053%=      5-min Rain = 0
KMC1 140201Z 20004KT 08/M01 A2998 RMK A01 T00781011  RH  053%=      5-min Rain = 0
KMC1 140202Z 19004KT 08/M01 A2998 RMK A01 T00791010  RH  053%=      5-min Rain = 0
KMC1 140203Z 18005KT 08/M01 A2998 RMK A01 T00791011  RH  053%=      5-min Rain = 0
KMC1 140204Z 18005KT 08/M01 A2998 RMK A01 T00791011  RH  053%=      5-min Rain = 0
KMC1 140205Z 18004KT 08/M01 A2998 RMK A01 T00791012  RH  053%=      5-min Rain = 0
KMC1 140206Z 17004KT 08/M01 A2998 RMK A01 T00791012  RH  052%=      5-min Rain = 0
KMC1 140207Z 17004KT 08/M01 A2998 RMK A01 T00801012  RH  052%=      5-min Rain = 0
KMC1 140208Z 17005KT 08/M01 A2998 RMK A01 T00801012  RH  052%=      5-min Rain = 0
KMC1 140209Z 17004KT 08/M01 A2999 RMK A01 T00801012  RH  052%=      5-min Rain = 0
KMC1 140210Z 17005KT 08/M01 A2999 RMK A01 T00791012  RH  052%=      5-min Rain = 0
KMC1 140211Z 18005KT 08/M01 A2999 RMK A01 T00801012  RH  052%=      5-min Rain = 0
KMC1 140212Z 18005KT 08/M01 A2999 RMK A01 T00801012  RH  052%=      5-min Rain = 0
KMC1 140213Z 18005KT 08/M01 A2999 RMK A01 T00811013  RH  052%=      5-min Rain = 0
KMC1 140214Z 19005KT 08/M01 A2999 RMK A01 T00811012  RH  052%=      5-min Rain = 0
KMC1 140215Z 19005KT 08/M01 A2999 RMK A01 T00811012  RH  052%=      5-min Rain = 0
KMC1 140216Z 19004KT 08/M01 A2999 RMK A01 T00811013  RH  052%=      5-min Rain = 0
KMC1 140217Z 20005KT 08/M01 A2999 RMK A01 T00811013  RH  052%=      5-min Rain = 0
KMC1 140218Z 19005KT 08/M01 A30 RMK A01 T00811013  RH  052%=      5-min Rain = 0
KMC1 140219Z 19004KT 08/M01 A30 RMK A01 T00801013  RH  052%=      5-min Rain = 0
KMC1 140220Z 20004KT 08/M01 A30 RMK A01 T00791013  RH  052%=      5-min Rain = 0
KMC1 140221Z 19004KT 08/M01 A30 RMK A01 T00791013  RH  052%=      5-min Rain = 0
KMC1 140222Z 20004KT 08/M01 A30 RMK A01 T00781013  RH  052%=      5-min Rain = 0
KMC1 140223Z 20004KT 08/M01 A30 RMK A01 T00771014  RH  053%=      5-min Rain = 0
KMC1 140224Z 20004KT 08/M01 A30 RMK A01 T00761014  RH  053%=      5-min Rain = 0
KMC1 140225Z 20004KT 08/M01 A30 RMK A01 T00761013  RH  053%=      5-min Rain = 0
KMC1 140226Z 20004KT 08/M01 A30 RMK A01 T00751014  RH  053%=      5-min Rain = 0
KMC1 140227Z 21004KT 07/M01 A30 RMK A01 T00741014  RH  054%=      5-min Rain = 0
KMC1 140228Z 21004KT 07/M01 A30 RMK A01 T00741014  RH  054%=      5-min Rain = 0
KMC1 140229Z 21004KT 07/M01 A30 RMK A01 T00731014  RH  054%=      5-min Rain = 0
KMC1 140230Z 21004KT 07/M01 A30 RMK A01 T00721014  RH  054%=      5-min Rain = 0
KMC1 140231Z 21004KT 07/M02 A30 RMK A01 T00711015  RH  054%=      5-min Rain = 0
KMC1 140232Z 21004KT 07/M02 A30 RMK A01 T00711015  RH  054%=      5-min Rain = 0
KMC1 140233Z 21004KT 07/M02 A30 RMK A01 T00711015  RH  054%=      5-min Rain = 0
KMC1 140234Z 20004KT 07/M02 A30 RMK A01 T00711015  RH  055%=      5-min Rain = 0
KMC1 140235Z 20005KT 07/M02 A30 RMK A01 T00701015  RH  055%=      5-min Rain = 0
KMC1 140236Z 20005KT 07/M02 A2999 RMK A01 T00691015  RH  055%=      5-min Rain = 0
KMC1 140237Z 20005KT 07/M02 A2999 RMK A01 T00691015  RH  055%=      5-min Rain = 0
KMC1 140238Z 19005KT 07/M02 A2999 RMK A01 T00681016  RH  055%=      5-min Rain = 0
KMC1 140239Z 19006KT 07/M02 A2999 RMK A01 T00681016  RH  055%=      5-min Rain = 0
KMC1 140240Z 19006KT 07/M02 A2999 RMK A01 T00681017  RH  055%=      5-min Rain = 0
KMC1 140241Z 20005KT 07/M02 A2999 RMK A01 T00681017  RH  055%=      5-min Rain = 0
KMC1 140242Z 20005KT 07/M02 A2999 RMK A01 T00681017  RH  055%=      5-min Rain = 0
KMC1 140243Z 20006KT 07/M02 A2999 RMK A01 T00681017  RH  055%=      5-min Rain = 0
KMC1 140244Z 20005KT 07/M02 A2999 RMK A01 T00681017  RH  055%=      5-min Rain = 0
KMC1 140245Z 20006KT 07/M02 A2999 RMK A01 T00681017  RH  054%=      5-min Rain = 0
KMC1 140246Z 19006KT 07/M02 A2999 RMK A01 T00681017  RH  054%=      5-min Rain = 0
KMC1 140247Z 20006KT 07/M02 A2999 RMK A01 T00691018  RH  054%=      5-min Rain = 0
KMC1 140248Z 20006KT 07/M02 A2999 RMK A01 T00691018  RH  054%=      5-min Rain = 0
KMC1 140249Z 20006KT 07/M02 A2999 RMK A01 T00701018  RH  053%=      5-min Rain = 0
KMC1 140250Z 20006KT 07/M02 A2999 RMK A01 T00711019  RH  053%=      5-min Rain = 0
KMC1 140251Z 20006KT 07/M02 A2999 RMK A01 T00711019  RH  053%=      5-min Rain = 0
KMC1 140252Z 20006KT 07/M02 A2999 RMK A01 T00721018  RH  053%=      5-min Rain = 0
KMC1 140253Z 20006KT 07/M02 A2999 RMK A01 T00721019  RH  052%=      5-min Rain = 0
KMC1 140254Z 21005KT 07/M02 A2999 RMK A01 T00721019  RH  052%=      5-min Rain = 0
KMC1 140255Z 21005KT 07/M02 A30 RMK A01 T00721019  RH  052%=      5-min Rain = 0
KMC1 140256Z 21005KT 07/M02 A30 RMK A01 T00731019  RH  052%=      5-min Rain = 0
KMC1 140257Z 21005KT 07/M02 A30 RMK A01 T00721020  RH  052%=      5-min Rain = 0
KMC1 140258Z 21006KT 07/M02 A30 RMK A01 T00721020  RH  052%=      5-min Rain = 0
KMC1 140259Z 21005KT 07/M02 A30 RMK A01 T00721020  RH  052%=      5-min Rain = 0
KMC1 140300Z 21005KT 07/M02 A30 RMK A01 T00721020  RH  052%=      5-min Rain = 0
KMC1 140301Z 21005KT 07/M02 A30 RMK A01 T00701020  RH  053%=      5-min Rain = 0
KMC1 140302Z 21004KT 07/M02 A30 RMK A01 T00691020  RH  053%=      5-min Rain = 0
KMC1 140303Z 21004KT 07/M02 A30 RMK A01 T00681021  RH  053%=      5-min Rain = 0
KMC1 140304Z 21005KT 07/M02 A2999 RMK A01 T00671021  RH  053%=      5-min Rain = 0
KMC1 140305Z 21005KT 07/M02 A2999 RMK A01 T00661021  RH  054%=      5-min Rain = 0
KMC1 140306Z 21005KT 07/M02 A2999 RMK A01 T00651021  RH  054%=      5-min Rain = 0
KMC1 140307Z 21005KT 07/M02 A2999 RMK A01 T00651021  RH  054%=      5-min Rain = 0
KMC1 140308Z 21004KT 06/M02 A2999 RMK A01 T00641021  RH  054%=      5-min Rain = 0
KMC1 140309Z 20004KT 06/M02 A2999 RMK A01 T00631021  RH  055%=      5-min Rain = 0
KMC1 140310Z 21005KT 06/M02 A2999 RMK A01 T00631021  RH  055%=      5-min Rain = 0
KMC1 140311Z 20005KT 06/M02 A2999 RMK A01 T00631021  RH  055%=      5-min Rain = 0
KMC1 140312Z 20005KT 06/M02 A2999 RMK A01 T00631021  RH  055%=      5-min Rain = 0
KMC1 140313Z 20005KT 06/M02 A2999 RMK A01 T00621021  RH  055%=      5-min Rain = 0
KMC1 140314Z 21006KT 06/M02 A2999 RMK A01 T00631021  RH  055%=      5-min Rain = 0
KMC1 140315Z 20006KT 06/M02 A2999 RMK A01 T00631021  RH  055%=      5-min Rain = 0
KMC1 140316Z 20005KT 06/M02 A2999 RMK A01 T00631021  RH  055%=      5-min Rain = 0
KMC1 140317Z 20006KT 06/M02 A2999 RMK A01 T00641021  RH  054%=      5-min Rain = 0
KMC1 140318Z 20005KT 07/M02 A2999 RMK A01 T00651021  RH  054%=      5-min Rain = 0
KMC1 140319Z 20006KT 07/M02 A2999 RMK A01 T00651022  RH  054%=      5-min Rain = 0
KMC1 140320Z 21006KT 07/M02 A2999 RMK A01 T00651022  RH  054%=      5-min Rain = 0
KMC1 140321Z 21006KT 07/M02 A2999 RMK A01 T00661022  RH  053%=      5-min Rain = 0
KMC1 140322Z 21006KT 07/M02 A2999 RMK A01 T00661022  RH  053%=      5-min Rain = 0
KMC1 140323Z 21006KT 07/M02 A2999 RMK A01 T00671022  RH  053%=      5-min Rain = 0
KMC1 140324Z 21005KT 07/M02 A2999 RMK A01 T00671022  RH  053%=      5-min Rain = 0
KMC1 140325Z 21006KT 07/M02 A2999 RMK A01 T00671023  RH  053%=      5-min Rain = 0
KMC1 140326Z 21007KT 07/M02 A2999 RMK A01 T00671022  RH  053%=      5-min Rain = 0
KMC1 140327Z 21007KT 07/M02 A2999 RMK A01 T00681023  RH  052%=      5-min Rain = 0
KMC1 140328Z 20007KT 07/M02 A2999 RMK A01 T00691023  RH  052%=      5-min Rain = 0
KMC1 140329Z 20007KT 07/M02 A2999 RMK A01 T00691023  RH  052%=      5-min Rain = 0
KMC1 140330Z 20005KT 07/M02 A2999 RMK A01 T00701023  RH  052%=      5-min Rain = 0
KMC1 140331Z 21007KT 07/M02 A2999 RMK A01 T00701022  RH  052%=      5-min Rain = 0
KMC1 140332Z 20006KT 07/M02 A2999 RMK A01 T00701022  RH  052%=      5-min Rain = 0
KMC1 140333Z 20006KT 07/M02 A2999 RMK A01 T00701023  RH  052%=      5-min Rain = 0
KMC1 140334Z 20006KT 07/M02 A2999 RMK A01 T00701023  RH  052%=      5-min Rain = 0
KMC1 140335Z 20006KT 07/M02 A2999 RMK A01 T00701024  RH  051%=      5-min Rain = 0
KMC1 140336Z 19005KT 07/M02 A2999 RMK A01 T00701024  RH  051%=      5-min Rain = 0
KMC1 140337Z 19006KT 07/M02 A2999 RMK A01 T00691023  RH  052%=      5-min Rain = 0
KMC1 140338Z 20006KT 07/M02 A2999 RMK A01 T00691024  RH  052%=      5-min Rain = 0
KMC1 140339Z 20006KT 07/M02 A2999 RMK A01 T00691024  RH  051%=      5-min Rain = 0
KMC1 140340Z 21005KT 07/M02 A2999 RMK A01 T00691024  RH  051%=      5-min Rain = 0
KMC1 140341Z 21005KT 07/M03 A2999 RMK A01 T00691025  RH  051%=      5-min Rain = 0
KMC1 140342Z 21005KT 07/M02 A2999 RMK A01 T00701024  RH  051%=      5-min Rain = 0
KMC1 140343Z 21005KT 07/M02 A2999 RMK A01 T00701024  RH  051%=      5-min Rain = 0
KMC1 140344Z 21006KT 07/M03 A2999 RMK A01 T00691025  RH  051%=      5-min Rain = 0
KMC1 140345Z 21005KT 07/M03 A2999 RMK A01 T00691025  RH  051%=      5-min Rain = 0
KMC1 140346Z 20006KT 07/M02 A2999 RMK A01 T00691024  RH  051%=      5-min Rain = 0
KMC1 140347Z 21006KT 07/M03 A2999 RMK A01 T00691025  RH  051%=      5-min Rain = 0
KMC1 140348Z 21006KT 07/M03 A2999 RMK A01 T00701025  RH  051%=      5-min Rain = 0
KMC1 140349Z 21005KT 07/M03 A2999 RMK A01 T00701025  RH  051%=      5-min Rain = 0
KMC1 140350Z 21006KT 07/M03 A2999 RMK A01 T00691025  RH  051%=      5-min Rain = 0
KMC1 140351Z 21005KT 07/M03 A2998 RMK A01 T00691025  RH  051%=      5-min Rain = 0
KMC1 140352Z 21005KT 07/M03 A2998 RMK A01 T00681025  RH  052%=      5-min Rain = 0
KMC1 140353Z 21005KT 07/M03 A2998 RMK A01 T00671025  RH  052%=      5-min Rain = 0
KMC1 140354Z 21005KT 07/M03 A2999 RMK A01 T00671025  RH  052%=      5-min Rain = 0
KMC1 140355Z 21004KT 07/M03 A2999 RMK A01 T00661025  RH  052%=      5-min Rain = 0
KMC1 140356Z 22004KT 07/M03 A2999 RMK A01 T00661025  RH  052%=      5-min Rain = 0
KMC1 140357Z 22004KT 07/M03 A2999 RMK A01 T00651026  RH  052%=      5-min Rain = 0
KMC1 140358Z 22004KT 06/M03 A2999 RMK A01 T00641026  RH  053%=      5-min Rain = 0
KMC1 140359Z 22005KT 06/M03 A2999 RMK A01 T00641026  RH  053%=      5-min Rain = 0
KMC1 140400Z 22005KT 06/M03 A2999 RMK A01 T00641026  RH  053%=      5-min Rain = 0
KMC1 140401Z 21005KT 06/M03 A2999 RMK A01 T00641026  RH  053%=      5-min Rain = 0
KMC1 140402Z 21005KT 06/M03 A2998 RMK A01 T00631025  RH  053%=      5-min Rain = 0
KMC1 140403Z 21004KT 06/M03 A2998 RMK A01 T00631026  RH  053%=      5-min Rain = 0
KMC1 140404Z 21006KT 06/M03 A2998 RMK A01 T00621026  RH  053%=      5-min Rain = 0
KMC1 140405Z 21006KT 06/M03 A2998 RMK A01 T00611026  RH  054%=      5-min Rain = 0
KMC1 140406Z 21006KT 06/M03 A2998 RMK A01 T00611026  RH  053%=      5-min Rain = 0
KMC1 140407Z 21005KT 06/M03 A2998 RMK A01 T00631025  RH  053%=      5-min Rain = 0
KMC1 140408Z 21005KT 06/M03 A2998 RMK A01 T00631026  RH  053%=      5-min Rain = 0
KMC1 140409Z 21006KT 06/M03 A2998 RMK A01 T00631026  RH  053%=      5-min Rain = 0
KMC1 140410Z 21006KT 06/M03 A2998 RMK A01 T00631026  RH  053%=      5-min Rain = 0
KMC1 140411Z 21005KT 06/M03 A2998 RMK A01 T00631026  RH  053%=      5-min Rain = 0
KMC1 140412Z 20006KT 06/M03 A2998 RMK A01 T00631026  RH  053%=      5-min Rain = 0
KMC1 140413Z 21006KT 06/M03 A2998 RMK A01 T00631026  RH  053%=      5-min Rain = 0
KMC1 140414Z 21006KT 06/M03 A2998 RMK A01 T00631026  RH  053%=      5-min Rain = 0
KMC1 140415Z 22006KT 06/M03 A2998 RMK A01 T00631026  RH  053%=      5-min Rain = 0
KMC1 140416Z 21006KT 06/M03 A2998 RMK A01 T00631026  RH  053%=      5-min Rain = 0
KMC1 140417Z 22006KT 06/M03 A2998 RMK A01 T00631026  RH  053%=      5-min Rain = 0
KMC1 140418Z 22005KT 06/M03 A2998 RMK A01 T00631026  RH  053%=      5-min Rain = 0
KMC1 140419Z 22005KT 06/M03 A2998 RMK A01 T00631025  RH  053%=      5-min Rain = 0
KMC1 140420Z 21004KT 06/M03 A2998 RMK A01 T00621026  RH  053%=      5-min Rain = 0
KMC1 140421Z 22005KT 06/M03 A2998 RMK A01 T00611026  RH  054%=      5-min Rain = 0
KMC1 140422Z 22004KT 06/M03 A2998 RMK A01 T00611026  RH  054%=      5-min Rain = 0
KMC1 140423Z 22004KT 06/M03 A2998 RMK A01 T00591026  RH  054%=      5-min Rain = 0
KMC1 140424Z 22005KT 06/M03 A2998 RMK A01 T00581026  RH  055%=      5-min Rain = 0
KMC1 140425Z 22005KT 06/M03 A2998 RMK A01 T00581026  RH  055%=      5-min Rain = 0
KMC1 140426Z 22005KT 06/M03 A2998 RMK A01 T00571026  RH  055%=      5-min Rain = 0
KMC1 140427Z 22004KT 06/M03 A2998 RMK A01 T00571026  RH  055%=      5-min Rain = 0
KMC1 140428Z 21005KT 06/M03 A2998 RMK A01 T00571026  RH  055%=      5-min Rain = 0
KMC1 140429Z 22005KT 06/M03 A2998 RMK A01 T00571026  RH  055%=      5-min Rain = 0
KMC1 140430Z 21006KT 06/M03 A2998 RMK A01 T00571027  RH  055%=      5-min Rain = 0
KMC1 140431Z 22005KT 06/M03 A2998 RMK A01 T00581026  RH  055%=      5-min Rain = 0
KMC1 140432Z 21006KT 06/M03 A2998 RMK A01 T00591026  RH  054%=      5-min Rain = 0
KMC1 140433Z 21005KT 06/M03 A2998 RMK A01 T00601026  RH  054%=      5-min Rain = 0
KMC1 140434Z 21005KT 06/M03 A2998 RMK A01 T00601026  RH  054%=      5-min Rain = 0
KMC1 140435Z 21006KT 06/M03 A2998 RMK A01 T00601026  RH  054%=      5-min Rain = 0
KMC1 140436Z 21006KT 06/M03 A2998 RMK A01 T00611026  RH  054%=      5-min Rain = 0
KMC1 140437Z 20006KT 06/M03 A2998 RMK A01 T00621026  RH  053%=      5-min Rain = 0
KMC1 140438Z 20007KT 06/M03 A2998 RMK A01 T00621026  RH  053%=      5-min Rain = 0
KMC1 140439Z 20005KT 06/M03 A2998 RMK A01 T00621026  RH  053%=      5-min Rain = 0
KMC1 140440Z 20005KT 06/M03 A2998 RMK A01 T00631026  RH  053%=      5-min Rain = 0
KMC1 140441Z 21006KT 06/M03 A2998 RMK A01 T00641026  RH  053%=      5-min Rain = 0
KMC1 140442Z 21006KT 06/M03 A2998 RMK A01 T00641026  RH  053%=      5-min Rain = 0
KMC1 140443Z 21006KT 07/M03 A2998 RMK A01 T00651026  RH  052%=      5-min Rain = 0
KMC1 140444Z 20005KT 06/M03 A2998 RMK A01 T00641026  RH  052%=      5-min Rain = 0
KMC1 140445Z 21005KT 06/M03 A2998 RMK A01 T00641026  RH  052%=      5-min Rain = 0
KMC1 140446Z 21004KT 06/M03 A2998 RMK A01 T00641026  RH  052%=      5-min Rain = 0
KMC1 140447Z 22004KT 06/M03 A2998 RMK A01 T00631027  RH  053%=      5-min Rain = 0
KMC1 140448Z 22004KT 06/M03 A2998 RMK A01 T00621027  RH  053%=      5-min Rain = 0
KMC1 140449Z 21005KT 06/M03 A2998 RMK A01 T00611027  RH  053%=      5-min Rain = 0
KMC1 140450Z 22004KT 06/M03 A2998 RMK A01 T00611027  RH  053%=      5-min Rain = 0
KMC1 140451Z 21004KT 06/M03 A2998 RMK A01 T00611027  RH  053%=      5-min Rain = 0
KMC1 140452Z 21005KT 06/M03 A2998 RMK A01 T00601027  RH  054%=      5-min Rain = 0
KMC1 140453Z 22004KT 06/M03 A2998 RMK A01 T00591027  RH  054%=      5-min Rain = 0
KMC1 140454Z 22004KT 06/M03 A2998 RMK A01 T00591027  RH  054%=      5-min Rain = 0
KMC1 140455Z 23003KT 06/M03 A2998 RMK A01 T00591027  RH  054%=      5-min Rain = 0
KMC1 140456Z 24003KT 06/M03 A2998 RMK A01 T00581027  RH  054%=      5-min Rain = 0
KMC1 140457Z 23003KT 06/M03 A2998 RMK A01 T00571027  RH  055%=      5-min Rain = 0
KMC1 140458Z 23004KT 06/M03 A2998 RMK A01 T00561027  RH  055%=      5-min Rain = 0
KMC1 140459Z 23004KT 06/M03 A2998 RMK A01 T00551027  RH  055%=      5-min Rain = 0
KMC1 140500Z 24005KT 06/M03 A2998 RMK A01 T00551027  RH  056%=      5-min Rain = 0
KMC1 140501Z 24004KT 06/M03 A2998 RMK A01 T00551027  RH  056%=      5-min Rain = 0
KMC1 140502Z 22004KT 06/M03 A2998 RMK A01 T00551028  RH  055%=      5-min Rain = 0
KMC1 140503Z 22005KT 06/M03 A2998 RMK A01 T00561028  RH  055%=      5-min Rain = 0
KMC1 140504Z 22006KT 06/M03 A2998 RMK A01 T00571028  RH  054%=      5-min Rain = 0
KMC1 140505Z 22004KT 06/M03 A2998 RMK A01 T00591028  RH  054%=      5-min Rain = 0
KMC1 140506Z 23004KT 06/M03 A2998 RMK A01 T00591029  RH  053%=      5-min Rain = 0
KMC1 140507Z 22005KT 06/M03 A2998 RMK A01 T00601029  RH  053%=      5-min Rain = 0
KMC1 140508Z 22004KT 06/M03 A2997 RMK A01 T00601029  RH  053%=      5-min Rain = 0
KMC1 140509Z 23004KT 06/M03 A2997 RMK A01 T00601029  RH  053%=      5-min Rain = 0
KMC1 140510Z 24004KT 06/M03 A2997 RMK A01 T00611030  RH  052%=      5-min Rain = 0
KMC1 140511Z 23004KT 06/M03 A2997 RMK A01 T00611030  RH  052%=      5-min Rain = 0
KMC1 140512Z 21005KT 06/M03 A2997 RMK A01 T00611030  RH  052%=      5-min Rain = 0
KMC1 140513Z 20004KT 06/M03 A2997 RMK A01 T00621031  RH  052%=      5-min Rain = 0
KMC1 140514Z 21006KT 06/M03 A2997 RMK A01 T00621031  RH  051%=      5-min Rain = 0
KMC1 140515Z 21005KT 06/M03 A2997 RMK A01 T00631031  RH  051%=      5-min Rain = 0
KMC1 140516Z 22006KT 07/M03 A2997 RMK A01 T00651031  RH  050%=      5-min Rain = 0
KMC1 140517Z 21004KT 07/M03 A2997 RMK A01 T00661031  RH  050%=      5-min Rain = 0
KMC1 140518Z 21006KT 07/M03 A2997 RMK A01 T00661031  RH  050%=      5-min Rain = 0
KMC1 140519Z 21007KT 07/M03 A2997 RMK A01 T00681031  RH  049%=      5-min Rain = 0
KMC1 140520Z 22006KT 07/M03 A2997 RMK A01 T00691032  RH  049%=      5-min Rain = 0
KMC1 140521Z 22006KT 07/M03 A2997 RMK A01 T00691031  RH  049%=      5-min Rain = 0
KMC1 140522Z 20007KT 07/M03 A2997 RMK A01 T00701032  RH  049%=      5-min Rain = 0
KMC1 140523Z 20007KT 07/M03 A2997 RMK A01 T00701031  RH  048%=      5-min Rain = 0
KMC1 140524Z 20006KT 07/M03 A2997 RMK A01 T00711031  RH  048%=      5-min Rain = 0
KMC1 140525Z 21008KT 07/M03 A2997 RMK A01 T00721031  RH  048%=      5-min Rain = 0
KMC1 140526Z 21008G13KT 07/M03 A2997 RMK A01 T00721031  RH  048%=      5-min Rain = 0
KMC1 140527Z 23007KT 07/M03 A2997 RMK A01 T00731030  RH  048%=      5-min Rain = 0
KMC1 140528Z 23006KT 07/M03 A2997 RMK A01 T00741030  RH  048%=      5-min Rain = 0
KMC1 140529Z 21007KT 07/M03 A2997 RMK A01 T00731030  RH  048%=      5-min Rain = 0
KMC1 140530Z 20008KT 07/M03 A2996 RMK A01 T00721030  RH  048%=      5-min Rain = 0
KMC1 140531Z 20006KT 07/M03 A2996 RMK A01 T00731030  RH  048%=      5-min Rain = 0
KMC1 140532Z 20006KT 07/M03 A2996 RMK A01 T00731028  RH  048%=      5-min Rain = 0
KMC1 140533Z 20008G13KT 07/M03 A2996 RMK A01 T00731028  RH  049%=      5-min Rain = 0
KMC1 140534Z 21009KT 07/M03 A2996 RMK A01 T00731028  RH  049%=      5-min Rain = 0
KMC1 140535Z 22009KT 07/M03 A2996 RMK A01 T00731028  RH  049%=      5-min Rain = 0
KMC1 140536Z 21008KT 07/M03 A2996 RMK A01 T00741027  RH  049%=      5-min Rain = 0
KMC1 140537Z 22008KT 08/M03 A2996 RMK A01 T00751027  RH  048%=      5-min Rain = 0
KMC1 140538Z 20008KT 08/M03 A2996 RMK A01 T00751027  RH  048%=      5-min Rain = 0
KMC1 140539Z 21008KT 08/M03 A2996 RMK A01 T00751027  RH  049%=      5-min Rain = 0
KMC1 140540Z 21010KT 08/M03 A2996 RMK A01 T00751026  RH  049%=      5-min Rain = 0
KMC1 140541Z 20009KT 08/M03 A2996 RMK A01 T00761026  RH  049%=      5-min Rain = 0
KMC1 140542Z 20010G15KT 08/M03 A2996 RMK A01 T00761026  RH  049%=      5-min Rain = 0
KMC1 140543Z 20010KT 08/M03 A2996 RMK A01 T00771025  RH  048%=      5-min Rain = 0
KMC1 140544Z 20010KT 08/M03 A2996 RMK A01 T00781025  RH  048%=      5-min Rain = 0
KMC1 140545Z 21009KT 08/M03 A2996 RMK A01 T00781025  RH  048%=      5-min Rain = 0
KMC1 140546Z 21010G16KT 08/M03 A2996 RMK A01 T00781025  RH  048%=      5-min Rain = 0
KMC1 140547Z 21011G16KT 08/M02 A2996 RMK A01 T00791024  RH  048%=      5-min Rain = 0
KMC1 140548Z 20009KT 08/M02 A2996 RMK A01 T00801024  RH  048%=      5-min Rain = 0
KMC1 140549Z 21011KT 08/M02 A2996 RMK A01 T00811023  RH  048%=      5-min Rain = 0
KMC1 140550Z 21010KT 08/M02 A2996 RMK A01 T00811023  RH  048%=      5-min Rain = 0
KMC1 140551Z 21009KT 08/M02 A2996 RMK A01 T00811023  RH  048%=      5-min Rain = 0
KMC1 140552Z 21008KT 08/M02 A2996 RMK A01 T00811023  RH  048%=      5-min Rain = 0
KMC1 140553Z 21010KT 08/M02 A2996 RMK A01 T00811022  RH  048%=      5-min Rain = 0
KMC1 140554Z 20011G16KT 08/M02 A2996 RMK A01 T00811022  RH  048%=      5-min Rain = 0
KMC1 140555Z 20009KT 08/M02 A2995 RMK A01 T00811022  RH  048%=      5-min Rain = 0
KMC1 140556Z 20011G16KT 08/M02 A2995 RMK A01 T00821021  RH  048%=      5-min Rain = 0
KMC1 140557Z 20008KT 08/M02 A2996 RMK A01 T00821021  RH  048%=      5-min Rain = 0
KMC1 140558Z 21007KT 08/M02 A2996 RMK A01 T00811021  RH  048%=      5-min Rain = 0
KMC1 140559Z 21008KT 08/M02 A2996 RMK A01 T00811021  RH  049%=      5-min Rain = 0

Page generated in 0.2073 seconds.